Time,TemperatureF,DewpointF,PressureIn,WindDirection,WindDirectionDegrees,WindSpeedMPH,WindSpeedGustMPH,Humidity,HourlyPrecipIn,Conditions,Clouds,dailyrainin,SoftwareType,DateUTC
2013-11-18 00:00:00,46.4,44.8,29.35,East,81,0.0,0.0,94,0.00,,---,0.00,VWS V13.01,2013-11-18 08:00:00,
2013-11-18 00:01:00,46.4,44.8,29.35,East,81,0.0,0.0,94,0.00,,---,0.00,VWS V13.01,2013-11-18 08:01:00,
2013-11-18 00:02:00,46.4,44.8,29.35,East,81,0.0,0.0,94,0.00,,---,0.00,VWS V13.01,2013-11-18 08:02:00,
2013-11-18 00:03:00,46.4,44.8,29.35,East,81,0.0,0.0,94,0.00,,---,0.00,VWS V13.01,2013-11-18 08:03:00,
2013-11-18 00:06:00,46.4,44.8,29.35,East,81,0.0,0.0,94,0.00,,---,0.00,VWS V13.01,2013-11-18 08:06:00,
2013-11-18 00:07:00,46.4,44.8,29.35,East,81,0.0,0.0,94,0.00,,---,0.00,VWS V13.01,2013-11-18 08:07:00,
2013-11-18 00:08:00,46.4,44.8,29.35,East,81,0.0,0.0,94,0.00,,---,0.00,VWS V13.01,2013-11-18 08:08:00,
2013-11-18 00:09:00,46.4,44.8,29.35,East,81,0.0,0.0,94,0.00,,---,0.00,VWS V13.01,2013-11-18 08:09:00,
2013-11-18 00:11:00,46.4,44.8,29.35,East,81,0.0,0.0,94,0.00,,---,0.00,VWS V13.01,2013-11-18 08:11:00,
2013-11-18 00:12:00,46.4,44.8,29.35,WSW,238,0.0,4.0,94,0.00,,---,0.00,VWS V13.01,2013-11-18 08:12:00,
2013-11-18 00:13:00,46.4,44.8,29.35,WSW,238,0.0,0.0,94,0.00,,---,0.00,VWS V13.01,2013-11-18 08:13:00,
2013-11-18 00:14:00,46.4,44.8,29.35,WSW,238,0.0,0.0,94,0.00,,---,0.00,VWS V13.01,2013-11-18 08:14:00,
2013-11-18 00:15:00,46.4,44.8,29.35,WSW,238,0.0,0.0,94,0.00,,---,0.00,VWS V13.01,2013-11-18 08:15:00,
2013-11-18 00:16:00,46.4,44.8,29.35,WSW,238,0.0,0.0,94,0.00,,---,0.00,VWS V13.01,2013-11-18 08:16:00,
2013-11-18 00:17:00,46.4,44.8,29.35,WSW,238,0.0,0.0,94,0.00,,---,0.00,VWS V13.01,2013-11-18 08:17:00,
2013-11-18 00:18:00,46.6,45.0,29.35,WSW,238,0.0,0.0,94,0.00,,---,0.00,VWS V13.01,2013-11-18 08:18:00,
2013-11-18 00:20:00,46.6,45.0,29.35,WSW,238,0.0,0.0,94,0.00,,---,0.00,VWS V13.01,2013-11-18 08:20:00,
2013-11-18 00:21:00,46.6,45.0,29.35,WSW,238,0.0,0.0,94,0.00,,---,0.00,VWS V13.01,2013-11-18 08:21:00,
2013-11-18 00:22:00,46.6,45.0,29.35,WSW,238,0.0,0.0,94,0.00,,---,0.00,VWS V13.01,2013-11-18 08:22:00,
2013-11-18 00:23:00,46.6,45.0,29.35,WSW,238,0.0,0.0,94,0.00,,---,0.00,VWS V13.01,2013-11-18 08:23:00,
2013-11-18 00:25:00,46.6,45.0,29.35,WSW,238,0.0,0.0,94,0.00,,---,0.00,VWS V13.01,2013-11-18 08:25:00,
2013-11-18 00:26:00,46.6,45.0,29.35,WSW,238,0.0,0.0,94,0.00,,---,0.00,VWS V13.01,2013-11-18 08:26:00,
2013-11-18 00:27:00,46.6,45.0,29.35,WSW,238,0.0,0.0,94,0.00,,---,0.00,VWS V13.01,2013-11-18 08:27:00,
2013-11-18 00:28:00,46.6,45.2,29.35,WSW,238,0.0,0.0,95,0.00,,---,0.00,VWS V13.01,2013-11-18 08:28:00,
2013-11-18 00:29:00,46.6,45.2,29.35,WSW,238,0.0,0.0,95,0.00,,---,0.00,VWS V13.01,2013-11-18 08:29:00,
2013-11-18 00:30:00,46.6,45.2,29.35,SE,141,0.0,0.0,95,0.00,,---,0.00,VWS V13.01,2013-11-18 08:30:00,
2013-11-18 00:31:00,46.6,45.2,29.35,SE,142,0.0,0.0,95,0.00,,---,0.00,VWS V13.01,2013-11-18 08:31:00,
2013-11-18 00:33:00,46.8,45.4,29.35,West,265,0.0,0.0,95,0.00,,---,0.00,VWS V13.01,2013-11-18 08:33:00,
2013-11-18 00:34:00,46.8,45.4,29.35,West,265,0.0,0.0,95,0.00,,---,0.00,VWS V13.01,2013-11-18 08:34:00,
2013-11-18 00:35:00,46.8,45.4,29.35,West,265,0.0,0.0,95,0.00,,---,0.00,VWS V13.01,2013-11-18 08:35:00,
2013-11-18 00:36:00,46.8,45.4,29.35,SW,216,0.0,0.0,95,0.00,,---,0.00,VWS V13.01,2013-11-18 08:36:00,
2013-11-18 00:38:00,46.9,45.6,29.35,SW,216,0.0,0.0,95,0.00,,---,0.00,VWS V13.01,2013-11-18 08:38:00,
2013-11-18 00:39:00,46.9,45.6,29.35,SW,216,0.0,0.0,95,0.00,,---,0.00,VWS V13.01,2013-11-18 08:39:00,
2013-11-18 00:41:00,46.8,45.4,29.35,SW,231,0.0,0.0,95,0.00,,---,0.00,VWS V13.01,2013-11-18 08:41:00,
2013-11-18 00:42:00,46.8,45.4,29.35,SW,231,0.0,0.0,95,0.00,,---,0.00,VWS V13.01,2013-11-18 08:42:00,
2013-11-18 00:43:00,46.8,45.4,29.35,SW,231,0.0,0.0,95,0.00,,---,0.00,VWS V13.01,2013-11-18 08:43:00,
2013-11-18 00:44:00,46.8,45.4,29.35,SW,231,0.0,0.0,95,0.00,,---,0.00,VWS V13.01,2013-11-18 08:44:00,
2013-11-18 00:46:00,46.9,45.6,29.35,SSE,159,0.0,0.0,95,0.00,,---,0.00,VWS V13.01,2013-11-18 08:46:00,
2013-11-18 00:47:00,46.9,45.6,29.35,SSE,159,0.0,0.0,95,0.00,,---,0.00,VWS V13.01,2013-11-18 08:47:00,
2013-11-18 00:48:00,46.9,45.6,29.35,SSE,159,0.0,0.0,95,0.00,,---,0.00,VWS V13.01,2013-11-18 08:48:00,
2013-11-18 00:49:00,46.9,45.6,29.35,SSE,159,0.0,0.0,95,0.00,,---,0.00,VWS V13.01,2013-11-18 08:49:00,
2013-11-18 00:51:00,46.9,45.6,29.35,WNW,298,0.0,0.0,95,0.00,,---,0.00,VWS V13.01,2013-11-18 08:51:00,
2013-11-18 00:52:00,46.9,45.6,29.35,WNW,298,0.0,0.0,95,0.00,,---,0.00,VWS V13.01,2013-11-18 08:52:00,
2013-11-18 00:53:00,46.9,45.6,29.35,WNW,298,0.0,0.0,95,0.00,,---,0.00,VWS V13.01,2013-11-18 08:53:00,
2013-11-18 00:54:00,46.9,45.6,29.35,WNW,298,0.0,0.0,95,0.00,,---,0.00,VWS V13.01,2013-11-18 08:54:00,
2013-11-18 00:56:00,46.9,45.6,29.35,SE,137,3.1,3.1,95,0.00,,---,0.00,VWS V13.01,2013-11-18 08:56:00,
2013-11-18 00:57:00,46.9,45.6,29.35,SSW,196,2.2,2.2,95,0.00,,---,0.00,VWS V13.01,2013-11-18 08:57:00,
2013-11-18 00:58:00,46.9,45.6,29.35,WSW,252,2.2,2.2,95,0.00,,---,0.00,VWS V13.01,2013-11-18 08:58:00,
2013-11-18 00:59:00,46.9,45.6,29.35,WSW,252,2.2,2.2,95,0.00,,---,0.00,VWS V13.01,2013-11-18 08:59:00,
2013-11-18 01:02:00,47.1,45.8,29.35,SW,231,2.7,2.7,95,0.00,,---,0.00,VWS V13.01,2013-11-18 09:02:00,
2013-11-18 01:03:00,47.1,45.8,29.35,SW,231,2.7,2.7,95,0.00,,---,0.00,VWS V13.01,2013-11-18 09:03:00,
2013-11-18 01:04:00,46.9,45.6,29.35,SSW,211,0.0,0.0,95,0.00,,---,0.00,VWS V13.01,2013-11-18 09:04:00,
2013-11-18 01:07:00,46.9,45.6,29.35,SSW,211,0.0,0.0,95,0.00,,---,0.00,VWS V13.01,2013-11-18 09:07:00,
2013-11-18 01:08:00,46.9,45.6,29.35,SW,218,0.0,0.0,95,0.00,,---,0.00,VWS V13.01,2013-11-18 09:08:00,
2013-11-18 01:09:00,46.9,45.6,29.35,SW,218,0.0,0.0,95,0.00,,---,0.00,VWS V13.01,2013-11-18 09:09:00,
2013-11-18 01:12:00,47.1,45.8,29.35,SE,131,0.0,0.0,95,0.00,,---,0.00,VWS V13.01,2013-11-18 09:12:00,
2013-11-18 01:13:00,47.1,45.8,29.35,SE,133,0.0,0.0,95,0.00,,---,0.00,VWS V13.01,2013-11-18 09:13:00,
2013-11-18 01:14:00,47.1,45.8,29.35,SW,218,2.7,2.7,95,0.00,,---,0.00,VWS V13.01,2013-11-18 09:14:00,
2013-11-18 01:15:00,47.1,45.8,29.35,SW,218,2.7,2.7,95,0.00,,---,0.00,VWS V13.01,2013-11-18 09:15:00,
2013-11-18 01:17:00,47.1,45.8,29.35,SW,218,0.0,0.0,95,0.00,,---,0.00,VWS V13.01,2013-11-18 09:17:00,
2013-11-18 01:18:00,47.1,45.8,29.35,SW,218,0.0,0.0,95,0.00,,---,0.00,VWS V13.01,2013-11-18 09:18:00,
2013-11-18 01:19:00,46.9,45.6,29.35,SW,218,0.0,0.0,95,0.00,,---,0.00,VWS V13.01,2013-11-18 09:19:00,
2013-11-18 01:20:00,46.9,45.6,29.35,SW,218,0.0,0.0,95,0.00,,---,0.00,VWS V13.01,2013-11-18 09:20:00,
2013-11-18 01:22:00,46.9,45.6,29.35,SSW,195,2.7,2.7,95,0.00,,---,0.00,VWS V13.01,2013-11-18 09:22:00,
2013-11-18 01:23:00,46.9,45.6,29.35,SSW,195,2.7,2.7,95,0.00,,---,0.00,VWS V13.01,2013-11-18 09:23:00,
2013-11-18 01:24:00,46.9,45.6,29.35,SSW,195,2.7,2.7,95,0.00,,---,0.00,VWS V13.01,2013-11-18 09:24:00,
2013-11-18 01:25:00,46.9,45.6,29.35,SSE,163,0.0,2.7,95,0.00,,---,0.00,VWS V13.01,2013-11-18 09:25:00,
2013-11-18 01:27:00,46.9,45.6,29.35,SSE,163,2.7,2.7,95,0.00,,---,0.00,VWS V13.01,2013-11-18 09:27:00,
2013-11-18 01:28:00,46.9,45.6,29.35,SSE,163,2.7,2.7,95,0.00,,---,0.00,VWS V13.01,2013-11-18 09:28:00,
2013-11-18 01:29:00,46.9,45.6,29.35,SSE,167,2.2,2.7,95,0.00,,---,0.00,VWS V13.01,2013-11-18 09:29:00,
2013-11-18 01:30:00,46.9,45.6,29.35,SSE,167,2.2,2.7,95,0.00,,---,0.00,VWS V13.01,2013-11-18 09:30:00,
2013-11-18 01:33:00,46.9,45.6,29.35,West,260,2.2,2.7,95,0.00,,---,0.00,VWS V13.01,2013-11-18 09:33:00,
2013-11-18 01:34:00,46.9,45.6,29.35,West,260,2.2,2.2,95,0.00,,---,0.00,VWS V13.01,2013-11-18 09:34:00,
2013-11-18 01:35:00,46.9,45.6,29.35,West,260,2.2,2.2,95,0.00,,---,0.00,VWS V13.01,2013-11-18 09:35:00,
2013-11-18 01:38:00,46.9,45.6,29.35,SW,224,0.0,0.0,95,0.00,,---,0.00,VWS V13.01,2013-11-18 09:38:00,
2013-11-18 01:39:00,46.9,45.6,29.35,SW,224,0.0,0.0,95,0.00,,---,0.00,VWS V13.01,2013-11-18 09:39:00,
2013-11-18 01:40:00,46.9,45.6,29.35,SW,224,0.0,0.0,95,0.00,,---,0.00,VWS V13.01,2013-11-18 09:40:00,
2013-11-18 01:43:00,46.9,45.6,29.35,SW,224,0.0,0.0,95,0.00,,---,0.00,VWS V13.01,2013-11-18 09:43:00,
2013-11-18 01:44:00,46.9,45.6,29.35,SW,224,0.0,0.0,95,0.00,,---,0.00,VWS V13.01,2013-11-18 09:44:00,
2013-11-18 01:45:00,46.9,45.6,29.35,SW,224,0.0,0.0,95,0.00,,---,0.00,VWS V13.01,2013-11-18 09:45:00,
2013-11-18 01:48:00,46.9,45.6,29.35,SE,137,2.7,2.7,95,0.00,,---,0.00,VWS V13.01,2013-11-18 09:48:00,
2013-11-18 01:49:00,46.9,45.6,29.35,ESE,106,0.0,2.7,95,0.00,,---,0.00,VWS V13.01,2013-11-18 09:49:00,
2013-11-18 01:50:00,46.9,45.6,29.35,ESE,106,0.0,0.0,95,0.00,,---,0.00,VWS V13.01,2013-11-18 09:50:00,
2013-11-18 01:53:00,46.9,45.6,29.35,East,83,0.0,0.0,95,0.00,,---,0.00,VWS V13.01,2013-11-18 09:53:00,
2013-11-18 01:54:00,46.9,45.6,29.35,East,83,0.0,0.0,95,0.00,,---,0.00,VWS V13.01,2013-11-18 09:54:00,
2013-11-18 01:55:00,46.9,45.6,29.35,East,83,0.0,0.0,95,0.00,,---,0.00,VWS V13.01,2013-11-18 09:55:00,
2013-11-18 01:56:00,46.9,45.6,29.35,East,83,0.0,0.0,95,0.00,,---,0.00,VWS V13.01,2013-11-18 09:56:00,
2013-11-18 01:59:00,46.9,45.9,29.35,East,83,0.0,0.0,96,0.00,,---,0.00,VWS V13.01,2013-11-18 09:59:00,
2013-11-18 02:01:00,46.9,45.9,29.35,East,83,0.0,0.0,96,0.00,,---,0.00,VWS V13.01,2013-11-18 10:01:00,
2013-11-18 02:04:00,46.9,45.9,29.35,SSW,199,0.0,0.0,96,0.00,,---,0.00,VWS V13.01,2013-11-18 10:04:00,
2013-11-18 02:05:00,46.9,45.9,29.35,SSW,199,0.0,0.0,96,0.00,,---,0.00,VWS V13.01,2013-11-18 10:05:00,
2013-11-18 02:06:00,46.9,45.9,29.35,South,173,3.1,3.1,96,0.00,,---,0.00,VWS V13.01,2013-11-18 10:06:00,
2013-11-18 02:07:00,46.9,45.9,29.35,South,173,3.1,3.1,96,0.00,,---,0.00,VWS V13.01,2013-11-18 10:07:00,
2013-11-18 02:09:00,46.9,45.9,29.35,South,173,0.0,0.0,96,0.00,,---,0.00,VWS V13.01,2013-11-18 10:09:00,
2013-11-18 02:10:00,46.9,45.9,29.35,South,173,0.0,0.0,96,0.00,,---,0.00,VWS V13.01,2013-11-18 10:10:00,
2013-11-18 02:11:00,46.9,45.9,29.35,South,173,0.0,0.0,96,0.00,,---,0.00,VWS V13.01,2013-11-18 10:11:00,
2013-11-18 02:12:00,46.9,45.9,29.35,South,173,0.0,0.0,96,0.00,,---,0.00,VWS V13.01,2013-11-18 10:12:00,
2013-11-18 02:14:00,46.8,45.7,29.35,SSE,168,0.0,0.0,96,0.00,,---,0.00,VWS V13.01,2013-11-18 10:14:00,
2013-11-18 02:15:00,46.8,45.7,29.35,SSE,168,0.0,0.0,96,0.00,,---,0.00,VWS V13.01,2013-11-18 10:15:00,
2013-11-18 02:16:00,46.8,45.7,29.35,SSE,168,0.0,0.0,96,0.00,,---,0.00,VWS V13.01,2013-11-18 10:16:00,
2013-11-18 02:17:00,46.9,45.9,29.35,SSE,168,0.0,0.0,96,0.00,,---,0.00,VWS V13.01,2013-11-18 10:17:00,
2013-11-18 02:20:00,46.8,45.7,29.35,SSE,168,0.0,0.0,96,0.00,,---,0.00,VWS V13.01,2013-11-18 10:20:00,
2013-11-18 02:21:00,46.8,45.7,29.35,SSE,168,0.0,0.0,96,0.00,,---,0.00,VWS V13.01,2013-11-18 10:21:00,
2013-11-18 02:22:00,46.8,45.7,29.35,SSE,168,0.0,0.0,96,0.00,,---,0.00,VWS V13.01,2013-11-18 10:22:00,
2013-11-18 02:25:00,46.8,45.7,29.35,SSE,168,0.0,0.0,96,0.00,,---,0.00,VWS V13.01,2013-11-18 10:25:00,
2013-11-18 02:26:00,46.8,45.7,29.35,SSE,168,0.0,0.0,96,0.00,,---,0.00,VWS V13.01,2013-11-18 10:26:00,
2013-11-18 02:27:00,46.8,45.7,29.35,SSE,168,0.0,0.0,96,0.00,,---,0.00,VWS V13.01,2013-11-18 10:27:00,
2013-11-18 02:30:00,46.8,45.7,29.35,SSE,168,0.0,0.0,96,0.00,,---,0.00,VWS V13.01,2013-11-18 10:30:00,
2013-11-18 02:32:00,46.8,45.7,29.35,East,84,0.0,0.0,96,0.00,,---,0.00,VWS V13.01,2013-11-18 10:32:00,
2013-11-18 02:33:00,46.8,45.7,29.35,East,84,0.0,0.0,96,0.00,,---,0.00,VWS V13.01,2013-11-18 10:33:00,
2013-11-18 02:35:00,46.8,45.7,29.35,East,84,0.0,0.0,96,0.00,,---,0.00,VWS V13.01,2013-11-18 10:35:00,
2013-11-18 02:36:00,46.8,45.7,29.35,East,84,0.0,0.0,96,0.00,,---,0.00,VWS V13.01,2013-11-18 10:36:00,
2013-11-18 02:37:00,46.8,45.7,29.35,East,84,0.0,0.0,96,0.00,,---,0.00,VWS V13.01,2013-11-18 10:37:00,
2013-11-18 02:38:00,46.8,45.7,29.35,SSE,150,0.0,0.0,96,0.00,,---,0.00,VWS V13.01,2013-11-18 10:38:00,
2013-11-18 02:40:00,46.8,45.7,29.35,SSE,150,0.0,0.0,96,0.00,,---,0.00,VWS V13.01,2013-11-18 10:40:00,
2013-11-18 02:41:00,46.8,45.7,29.35,SSE,150,0.0,0.0,96,0.00,,---,0.00,VWS V13.01,2013-11-18 10:41:00,
2013-11-18 02:42:00,46.8,45.7,29.35,SSE,149,2.2,2.2,96,0.00,,---,0.00,VWS V13.01,2013-11-18 10:42:00,
2013-11-18 02:43:00,46.8,45.7,29.35,SSE,149,0.0,0.0,96,0.00,,---,0.00,VWS V13.01,2013-11-18 10:43:00,
2013-11-18 02:45:00,46.9,45.9,29.35,SSE,149,0.0,0.0,96,0.00,,---,0.00,VWS V13.01,2013-11-18 10:45:00,
2013-11-18 02:46:00,46.9,45.9,29.35,SSE,149,0.0,0.0,96,0.00,,---,0.00,VWS V13.01,2013-11-18 10:46:00,
2013-11-18 02:47:00,46.9,45.9,29.35,SSE,149,0.0,0.0,96,0.00,,---,0.00,VWS V13.01,2013-11-18 10:47:00,
2013-11-18 02:48:00,46.8,45.7,29.35,SSE,149,0.0,0.0,96,0.00,,---,0.00,VWS V13.01,2013-11-18 10:48:00,
2013-11-18 02:50:00,46.9,45.9,29.35,SSE,149,0.0,0.0,96,0.00,,---,0.00,VWS V13.01,2013-11-18 10:50:00,
2013-11-18 02:51:00,46.9,45.9,29.35,SSE,149,0.0,0.0,96,0.00,,---,0.00,VWS V13.01,2013-11-18 10:51:00,
2013-11-18 02:52:00,46.9,45.9,29.35,SSE,149,0.0,0.0,96,0.00,,---,0.00,VWS V13.01,2013-11-18 10:52:00,
2013-11-18 02:53:00,46.9,45.9,29.35,SSE,149,0.0,0.0,96,0.00,,---,0.00,VWS V13.01,2013-11-18 10:53:00,
2013-11-18 02:55:00,46.9,45.9,29.35,SSE,149,0.0,0.0,96,0.00,,---,0.00,VWS V13.01,2013-11-18 10:55:00,
2013-11-18 02:56:00,46.9,45.9,29.35,SE,139,0.0,0.0,96,0.00,,---,0.00,VWS V13.01,2013-11-18 10:56:00,
2013-11-18 02:57:00,46.9,45.9,29.35,SE,139,0.0,0.0,96,0.00,,---,0.00,VWS V13.01,2013-11-18 10:57:00,
2013-11-18 02:58:00,46.9,45.9,29.35,ENE,71,0.0,0.0,96,0.00,,---,0.00,VWS V13.01,2013-11-18 10:58:00,
2013-11-18 03:00:00,46.9,45.9,29.35,ENE,71,0.0,0.0,96,0.00,,---,0.00,VWS V13.01,2013-11-18 11:00:00,
2013-11-18 03:01:00,46.9,45.9,29.35,ENE,71,0.0,0.0,96,0.00,,---,0.00,VWS V13.01,2013-11-18 11:01:00,
2013-11-18 03:02:00,46.9,45.9,29.35,ENE,71,0.0,0.0,96,0.00,,---,0.00,VWS V13.01,2013-11-18 11:02:00,
2013-11-18 03:03:00,46.9,45.9,29.35,East,89,0.0,0.0,96,0.00,,---,0.00,VWS V13.01,2013-11-18 11:03:00,
2013-11-18 03:06:00,46.9,45.9,29.35,SW,217,0.0,0.0,96,0.00,,---,0.00,VWS V13.01,2013-11-18 11:06:00,
2013-11-18 03:07:00,46.9,45.9,29.35,SE,140,0.0,0.0,96,0.00,,---,0.00,VWS V13.01,2013-11-18 11:07:00,
2013-11-18 03:08:00,46.9,45.9,29.35,SE,140,0.0,0.0,96,0.00,,---,0.00,VWS V13.01,2013-11-18 11:08:00,
2013-11-18 03:11:00,46.9,45.9,29.35,SE,140,0.0,0.0,96,0.00,,---,0.00,VWS V13.01,2013-11-18 11:11:00,
2013-11-18 03:12:00,46.9,45.9,29.35,SE,140,0.0,0.0,96,0.00,,---,0.00,VWS V13.01,2013-11-18 11:12:00,
2013-11-18 03:14:00,46.9,45.9,29.35,SE,140,0.0,0.0,96,0.00,,---,0.00,VWS V13.01,2013-11-18 11:14:00,
2013-11-18 03:16:00,46.9,45.9,29.35,SE,140,0.0,0.0,96,0.00,,---,0.00,VWS V13.01,2013-11-18 11:16:00,
2013-11-18 03:17:00,46.9,45.9,29.35,SE,140,0.0,0.0,96,0.00,,---,0.00,VWS V13.01,2013-11-18 11:17:00,
2013-11-18 03:19:00,46.9,45.9,29.35,SE,140,0.0,0.0,96,0.00,,---,0.00,VWS V13.01,2013-11-18 11:19:00,
2013-11-18 03:21:00,46.9,45.9,29.35,SE,140,0.0,0.0,96,0.00,,---,0.00,VWS V13.01,2013-11-18 11:21:00,
2013-11-18 03:22:00,46.9,45.9,29.35,SE,140,0.0,0.0,96,0.00,,---,0.00,VWS V13.01,2013-11-18 11:22:00,
2013-11-18 03:24:00,46.9,45.9,29.35,SE,140,0.0,0.0,96,0.00,,---,0.00,VWS V13.01,2013-11-18 11:24:00,
2013-11-18 03:26:00,46.9,45.9,29.35,SE,140,0.0,0.0,96,0.00,,---,0.00,VWS V13.01,2013-11-18 11:26:00,
2013-11-18 03:27:00,46.9,45.9,29.35,SE,140,0.0,0.0,96,0.00,,---,0.00,VWS V13.01,2013-11-18 11:27:00,
2013-11-18 03:30:00,46.9,45.9,29.35,SE,139,0.0,0.0,96,0.00,,---,0.00,VWS V13.01,2013-11-18 11:30:00,
2013-11-18 03:31:00,46.9,45.9,29.35,SE,139,0.0,0.0,96,0.00,,---,0.00,VWS V13.01,2013-11-18 11:31:00,
2013-11-18 03:32:00,46.9,45.9,29.35,SE,140,0.0,0.0,96,0.00,,---,0.00,VWS V13.01,2013-11-18 11:32:00,
2013-11-18 03:36:00,46.9,45.9,29.35,SE,140,0.0,0.0,96,0.00,,---,0.00,VWS V13.01,2013-11-18 11:36:00,
2013-11-18 03:37:00,46.9,45.9,29.35,SE,140,0.0,0.0,96,0.00,,---,0.00,VWS V13.01,2013-11-18 11:37:00,
2013-11-18 03:38:00,46.9,45.9,29.35,SE,140,0.0,0.0,96,0.00,,---,0.00,VWS V13.01,2013-11-18 11:38:00,
2013-11-18 03:41:00,46.9,45.9,29.35,ENE,77,0.0,0.0,96,0.00,,---,0.00,VWS V13.01,2013-11-18 11:41:00,
2013-11-18 03:42:00,46.9,45.9,29.35,ENE,77,0.0,0.0,96,0.00,,---,0.00,VWS V13.01,2013-11-18 11:42:00,
2013-11-18 03:43:00,46.9,45.9,29.35,ENE,77,0.0,0.0,96,0.00,,---,0.00,VWS V13.01,2013-11-18 11:43:00,
2013-11-18 03:46:00,46.9,45.9,29.35,ENE,77,0.0,0.0,96,0.00,,---,0.00,VWS V13.01,2013-11-18 11:46:00,
2013-11-18 03:48:00,46.9,45.9,29.35,ENE,77,0.0,0.0,96,0.00,,---,0.00,VWS V13.01,2013-11-18 11:48:00,
2013-11-18 03:51:00,46.9,45.9,29.35,ENE,77,0.0,0.0,96,0.00,,---,0.00,VWS V13.01,2013-11-18 11:51:00,
2013-11-18 03:53:00,46.9,45.9,29.35,ESE,119,0.0,0.0,96,0.00,,---,0.00,VWS V13.01,2013-11-18 11:53:00,
2013-11-18 03:54:00,46.9,45.9,29.35,ESE,119,0.0,0.0,96,0.00,,---,0.00,VWS V13.01,2013-11-18 11:54:00,
2013-11-18 03:56:00,46.9,45.9,29.32,ESE,119,0.0,0.0,96,0.00,,---,0.00,VWS V13.01,2013-11-18 11:56:00,
2013-11-18 03:57:00,46.9,45.9,29.32,ESE,119,0.0,0.0,96,0.00,,---,0.00,VWS V13.01,2013-11-18 11:57:00,
2013-11-18 03:58:00,46.9,45.9,29.32,SE,129,0.0,0.0,96,0.00,,---,0.00,VWS V13.01,2013-11-18 11:58:00,
2013-11-18 03:59:00,46.9,45.9,29.32,SE,129,0.0,0.0,96,0.00,,---,0.00,VWS V13.01,2013-11-18 11:59:00,
2013-11-18 04:00:00,46.9,45.9,29.32,SE,129,0.0,0.0,96,0.00,,---,0.00,VWS V13.01,2013-11-18 12:00:00,
2013-11-18 04:01:00,46.9,45.9,29.32,SE,129,0.0,0.0,96,0.00,,---,0.00,VWS V13.01,2013-11-18 12:01:00,
2013-11-18 04:02:00,46.9,45.9,29.32,SE,129,0.0,0.0,96,0.00,,---,0.00,VWS V13.01,2013-11-18 12:02:00,
2013-11-18 04:03:00,46.9,45.9,29.32,SE,129,0.0,0.0,96,0.00,,---,0.00,VWS V13.01,2013-11-18 12:03:00,
2013-11-18 04:04:00,46.9,45.9,29.32,SE,129,0.0,0.0,96,0.00,,---,0.00,VWS V13.01,2013-11-18 12:04:00,
2013-11-18 04:05:00,46.9,45.9,29.32,South,170,0.0,0.0,96,0.00,,---,0.00,VWS V13.01,2013-11-18 12:05:00,
2013-11-18 04:06:00,46.9,45.9,29.32,SSE,164,0.0,0.0,96,0.00,,---,0.00,VWS V13.01,2013-11-18 12:06:00,
2013-11-18 04:07:00,46.9,45.9,29.32,SSE,164,0.0,0.0,96,0.00,,---,0.00,VWS V13.01,2013-11-18 12:07:00,
2013-11-18 04:08:00,46.9,45.9,29.32,SSE,164,0.0,0.0,96,0.00,,---,0.00,VWS V13.01,2013-11-18 12:08:00,
2013-11-18 04:09:00,46.9,45.9,29.32,SSE,164,0.0,0.0,96,0.00,,---,0.00,VWS V13.01,2013-11-18 12:09:00,
2013-11-18 04:11:00,46.9,45.9,29.32,SSE,164,0.0,0.0,96,0.00,,---,0.00,VWS V13.01,2013-11-18 12:11:00,
2013-11-18 04:12:00,46.9,45.9,29.32,SE,140,0.0,0.0,96,0.00,,---,0.00,VWS V13.01,2013-11-18 12:12:00,
2013-11-18 04:13:00,46.9,45.9,29.32,SE,140,0.0,0.0,96,0.00,,---,0.00,VWS V13.01,2013-11-18 12:13:00,
2013-11-18 04:14:00,46.9,45.9,29.32,SE,140,0.0,0.0,96,0.00,,---,0.00,VWS V13.01,2013-11-18 12:14:00,
2013-11-18 04:15:00,46.9,45.9,29.32,SE,140,0.0,0.0,96,0.00,,---,0.00,VWS V13.01,2013-11-18 12:15:00,
2013-11-18 04:16:00,46.9,45.9,29.32,SE,140,0.0,0.0,96,0.00,,---,0.00,VWS V13.01,2013-11-18 12:16:00,
2013-11-18 04:17:00,46.9,45.9,29.32,SE,140,0.0,0.0,96,0.00,,---,0.00,VWS V13.01,2013-11-18 12:17:00,
2013-11-18 04:18:00,46.9,45.9,29.32,SE,140,0.0,0.0,96,0.00,,---,0.00,VWS V13.01,2013-11-18 12:18:00,
2013-11-18 04:19:00,46.9,45.9,29.32,SE,124,0.0,0.0,96,0.00,,---,0.00,VWS V13.01,2013-11-18 12:19:00,
2013-11-18 04:20:00,46.9,45.9,29.32,SE,124,0.0,0.0,96,0.00,,---,0.00,VWS V13.01,2013-11-18 12:20:00,
2013-11-18 04:21:00,46.9,45.9,29.32,SE,124,0.0,0.0,96,0.00,,---,0.00,VWS V13.01,2013-11-18 12:21:00,
2013-11-18 04:22:00,46.9,45.9,29.32,SE,124,0.0,0.0,96,0.00,,---,0.00,VWS V13.01,2013-11-18 12:22:00,
2013-11-18 04:23:00,46.9,45.9,29.32,SE,124,0.0,0.0,96,0.00,,---,0.00,VWS V13.01,2013-11-18 12:23:00,
2013-11-18 04:24:00,46.9,45.9,29.32,SSE,147,0.0,0.0,96,0.00,,---,0.00,VWS V13.01,2013-11-18 12:24:00,
2013-11-18 04:25:00,46.9,45.9,29.32,SSE,147,0.0,0.0,96,0.00,,---,0.00,VWS V13.01,2013-11-18 12:25:00,
2013-11-18 04:26:00,46.9,45.9,29.32,SSE,147,0.0,0.0,96,0.00,,---,0.00,VWS V13.01,2013-11-18 12:26:00,
2013-11-18 04:27:00,46.9,45.9,29.32,SSE,147,0.0,0.0,96,0.00,,---,0.00,VWS V13.01,2013-11-18 12:27:00,
2013-11-18 04:28:00,47.1,46.0,29.32,SSE,165,0.0,0.0,96,0.00,,---,0.00,VWS V13.01,2013-11-18 12:28:00,
2013-11-18 04:29:00,47.1,46.0,29.32,SSE,165,0.0,0.0,96,0.00,,---,0.00,VWS V13.01,2013-11-18 12:29:00,
2013-11-18 04:30:00,47.1,46.3,29.32,SW,225,3.6,3.6,97,0.00,,---,0.00,VWS V13.01,2013-11-18 12:30:00,
2013-11-18 04:31:00,47.1,46.3,29.32,South,181,2.7,3.6,97,0.00,,---,0.00,VWS V13.01,2013-11-18 12:31:00,
2013-11-18 04:32:00,47.1,46.3,29.32,SW,224,2.7,2.7,97,0.00,,---,0.00,VWS V13.01,2013-11-18 12:32:00,
2013-11-18 04:33:00,47.3,46.5,29.32,SW,224,2.7,2.7,97,0.00,,---,0.00,VWS V13.01,2013-11-18 12:33:00,
2013-11-18 04:34:00,47.3,46.5,29.32,SSE,150,0.0,2.7,97,0.00,,---,0.00,VWS V13.01,2013-11-18 12:34:00,
2013-11-18 04:35:00,47.3,46.5,29.32,SSE,150,0.0,0.0,97,0.00,,---,0.00,VWS V13.01,2013-11-18 12:35:00,
2013-11-18 04:37:00,47.3,46.5,29.32,SSW,197,0.0,0.0,97,0.00,,---,0.00,VWS V13.01,2013-11-18 12:37:00,
2013-11-18 04:39:00,47.3,46.5,29.32,SSW,197,0.0,0.0,97,0.00,,---,0.00,VWS V13.01,2013-11-18 12:39:00,
2013-11-18 04:41:00,47.3,46.5,29.32,SSW,197,0.0,0.0,97,0.00,,---,0.00,VWS V13.01,2013-11-18 12:41:00,
2013-11-18 04:42:00,47.3,46.5,29.32,SW,235,0.0,0.0,97,0.00,,---,0.00,VWS V13.01,2013-11-18 12:42:00,
2013-11-18 04:44:00,47.3,46.5,29.32,SW,235,0.0,0.0,97,0.00,,---,0.00,VWS V13.01,2013-11-18 12:44:00,
2013-11-18 04:46:00,47.5,46.7,29.32,SW,233,0.0,0.0,97,0.00,,---,0.00,VWS V13.01,2013-11-18 12:46:00,
2013-11-18 04:47:00,47.5,46.7,29.32,SW,233,0.0,0.0,97,0.00,,---,0.00,VWS V13.01,2013-11-18 12:47:00,
2013-11-18 04:49:00,47.5,46.7,29.32,SW,233,0.0,0.0,97,0.00,,---,0.00,VWS V13.01,2013-11-18 12:49:00,
2013-11-18 04:51:00,47.5,46.7,29.32,SW,233,0.0,0.0,97,0.00,,---,0.00,VWS V13.01,2013-11-18 12:51:00,
2013-11-18 04:52:00,47.5,46.7,29.32,SW,233,0.0,0.0,97,0.00,,---,0.00,VWS V13.01,2013-11-18 12:52:00,
2013-11-18 04:54:00,47.5,46.7,29.32,SW,233,0.0,0.0,97,0.00,,---,0.00,VWS V13.01,2013-11-18 12:54:00,
2013-11-18 04:56:00,47.3,46.5,29.32,SSE,163,0.0,0.0,97,0.00,,---,0.00,VWS V13.01,2013-11-18 12:56:00,
2013-11-18 04:57:00,47.3,46.5,29.32,SSE,163,0.0,0.0,97,0.00,,---,0.00,VWS V13.01,2013-11-18 12:57:00,
2013-11-18 04:58:00,47.3,46.5,29.32,SSE,163,0.0,0.0,97,0.00,,---,0.00,VWS V13.01,2013-11-18 12:58:00,
2013-11-18 04:59:00,47.3,46.5,29.32,SSE,163,0.0,0.0,97,0.00,,---,0.00,VWS V13.01,2013-11-18 12:59:00,
2013-11-18 05:00:00,47.3,46.5,29.32,SSE,163,0.0,0.0,97,0.00,,---,0.00,VWS V13.01,2013-11-18 13:00:00,
2013-11-18 05:01:00,47.3,46.5,29.32,SSE,163,0.0,0.0,97,0.00,,---,0.00,VWS V13.01,2013-11-18 13:01:00,
2013-11-18 05:02:00,47.3,46.5,29.32,SSE,163,0.0,0.0,97,0.00,,---,0.00,VWS V13.01,2013-11-18 13:02:00,
2013-11-18 05:03:00,47.3,46.5,29.32,South,180,0.0,0.0,97,0.00,,---,0.00,VWS V13.01,2013-11-18 13:03:00,
2013-11-18 05:04:00,47.5,46.7,29.32,South,178,0.0,0.0,97,0.00,,---,0.00,VWS V13.01,2013-11-18 13:04:00,
2013-11-18 05:05:00,47.5,46.7,29.32,South,178,0.0,0.0,97,0.00,,---,0.00,VWS V13.01,2013-11-18 13:05:00,
2013-11-18 05:06:00,47.5,46.7,29.32,South,178,0.0,0.0,97,0.00,,---,0.00,VWS V13.01,2013-11-18 13:06:00,
2013-11-18 05:07:00,47.5,46.7,29.32,South,178,0.0,0.0,97,0.00,,---,0.00,VWS V13.01,2013-11-18 13:07:00,
2013-11-18 05:08:00,47.5,46.7,29.32,South,178,0.0,0.0,97,0.00,,---,0.00,VWS V13.01,2013-11-18 13:08:00,
2013-11-18 05:09:00,47.5,46.7,29.32,South,178,0.0,0.0,97,0.00,,---,0.00,VWS V13.01,2013-11-18 13:09:00,
2013-11-18 05:10:00,47.5,46.7,29.32,South,178,0.0,0.0,97,0.00,,---,0.00,VWS V13.01,2013-11-18 13:10:00,
2013-11-18 05:11:00,47.5,46.7,29.32,South,178,0.0,0.0,97,0.00,,---,0.00,VWS V13.01,2013-11-18 13:11:00,
2013-11-18 05:13:00,47.5,46.7,29.32,SSE,155,0.0,0.0,97,0.00,,---,0.00,VWS V13.01,2013-11-18 13:13:00,
2013-11-18 05:14:00,47.5,46.7,29.32,SSE,155,0.0,0.0,97,0.00,,---,0.00,VWS V13.01,2013-11-18 13:14:00,
2013-11-18 05:15:00,47.5,46.7,29.32,SSE,155,0.0,0.0,97,0.00,,---,0.00,VWS V13.01,2013-11-18 13:15:00,
2013-11-18 05:17:00,47.5,46.7,29.32,SSE,155,0.0,0.0,97,0.00,,---,0.00,VWS V13.01,2013-11-18 13:17:00,
2013-11-18 05:18:00,47.5,46.7,29.32,South,173,0.0,0.0,97,0.00,,---,0.00,VWS V13.01,2013-11-18 13:18:00,
2013-11-18 05:19:00,47.5,46.7,29.32,South,173,0.0,0.0,97,0.00,,---,0.00,VWS V13.01,2013-11-18 13:19:00,
2013-11-18 05:20:00,47.5,46.7,29.32,SSE,167,0.0,0.0,97,0.00,,---,0.00,VWS V13.01,2013-11-18 13:20:00,
2013-11-18 05:22:00,47.5,46.7,29.32,SSE,167,0.0,0.0,97,0.00,,---,0.00,VWS V13.01,2013-11-18 13:22:00,
2013-11-18 05:23:00,47.5,46.7,29.32,SSE,167,0.0,0.0,97,0.00,,---,0.00,VWS V13.01,2013-11-18 13:23:00,
2013-11-18 05:24:00,47.5,46.7,29.32,SSE,167,0.0,0.0,97,0.00,,---,0.00,VWS V13.01,2013-11-18 13:24:00,
2013-11-18 05:25:00,47.5,46.7,29.32,SSE,167,0.0,0.0,97,0.00,,---,0.00,VWS V13.01,2013-11-18 13:25:00,
2013-11-18 05:26:00,47.5,46.7,29.32,SSE,167,0.0,0.0,97,0.00,,---,0.00,VWS V13.01,2013-11-18 13:26:00,
2013-11-18 05:27:00,47.5,46.7,29.32,SSE,167,0.0,0.0,97,0.00,,---,0.00,VWS V13.01,2013-11-18 13:27:00,
2013-11-18 05:28:00,47.5,46.7,29.32,SSE,167,0.0,0.0,97,0.00,,---,0.00,VWS V13.01,2013-11-18 13:28:00,
2013-11-18 05:29:00,47.5,46.7,29.32,SSE,167,0.0,0.0,97,0.00,,---,0.00,VWS V13.01,2013-11-18 13:29:00,
2013-11-18 05:30:00,47.5,46.7,29.32,SSE,167,0.0,0.0,97,0.00,,---,0.00,VWS V13.01,2013-11-18 13:30:00,
2013-11-18 05:31:00,47.5,46.7,29.32,SSE,167,0.0,0.0,97,0.00,,---,0.00,VWS V13.01,2013-11-18 13:31:00,
2013-11-18 05:33:00,47.5,46.7,29.32,SSE,167,0.0,0.0,97,0.00,,---,0.00,VWS V13.01,2013-11-18 13:33:00,
2013-11-18 05:34:00,47.3,46.5,29.32,SSE,167,0.0,0.0,97,0.00,,---,0.00,VWS V13.01,2013-11-18 13:34:00,
2013-11-18 05:35:00,47.3,46.5,29.32,SSE,167,0.0,0.0,97,0.00,,---,0.00,VWS V13.01,2013-11-18 13:35:00,
2013-11-18 05:36:00,47.3,46.5,29.32,SSE,167,0.0,0.0,97,0.00,,---,0.00,VWS V13.01,2013-11-18 13:36:00,
2013-11-18 05:38:00,47.5,46.7,29.32,SSE,167,0.0,0.0,97,0.00,,---,0.00,VWS V13.01,2013-11-18 13:38:00,
2013-11-18 05:39:00,47.5,46.7,29.32,SSE,167,0.0,0.0,97,0.00,,---,0.00,VWS V13.01,2013-11-18 13:39:00,
2013-11-18 05:40:00,47.3,46.5,29.32,SSE,167,0.0,0.0,97,0.00,,---,0.00,VWS V13.01,2013-11-18 13:40:00,
2013-11-18 05:41:00,47.3,46.5,29.32,SSE,167,0.0,0.0,97,0.00,,---,0.00,VWS V13.01,2013-11-18 13:41:00,
2013-11-18 05:43:00,47.5,46.7,29.32,SSE,167,0.0,0.0,97,0.00,,---,0.00,VWS V13.01,2013-11-18 13:43:00,
2013-11-18 05:44:00,47.5,46.7,29.32,SSE,167,0.0,0.0,97,0.00,,---,0.00,VWS V13.01,2013-11-18 13:44:00,
2013-11-18 05:45:00,47.5,46.7,29.32,SSE,167,0.0,0.0,97,0.00,,---,0.00,VWS V13.01,2013-11-18 13:45:00,
2013-11-18 05:46:00,47.5,46.7,29.32,SSE,167,0.0,0.0,97,0.00,,---,0.00,VWS V13.01,2013-11-18 13:46:00,
2013-11-18 05:48:00,47.5,46.7,29.32,SSE,150,0.0,0.0,97,0.00,,---,0.00,VWS V13.01,2013-11-18 13:48:00,
2013-11-18 05:49:00,47.5,46.7,29.32,SSE,150,0.0,0.0,97,0.00,,---,0.00,VWS V13.01,2013-11-18 13:49:00,
2013-11-18 05:50:00,47.5,46.7,29.32,SSE,150,0.0,0.0,97,0.00,,---,0.00,VWS V13.01,2013-11-18 13:50:00,
2013-11-18 05:51:00,47.5,46.7,29.32,SSE,150,0.0,0.0,97,0.00,,---,0.00,VWS V13.01,2013-11-18 13:51:00,
2013-11-18 05:53:00,47.5,46.7,29.32,SSE,150,0.0,0.0,97,0.00,,---,0.00,VWS V13.01,2013-11-18 13:53:00,
2013-11-18 05:54:00,47.5,46.7,29.32,SSE,150,0.0,0.0,97,0.00,,---,0.00,VWS V13.01,2013-11-18 13:54:00,
2013-11-18 05:56:00,47.5,46.7,29.32,SSE,150,0.0,0.0,97,0.00,,---,0.00,VWS V13.01,2013-11-18 13:56:00,
2013-11-18 05:58:00,47.5,46.7,29.32,SSE,150,0.0,0.0,97,0.00,,---,0.00,VWS V13.01,2013-11-18 13:58:00,
2013-11-18 05:59:00,47.3,46.5,29.32,SSE,150,0.0,0.0,97,0.00,,---,0.00,VWS V13.01,2013-11-18 13:59:00,
2013-11-18 06:01:00,47.3,46.5,29.32,SSE,150,0.0,0.0,97,0.00,,---,0.00,VWS V13.01,2013-11-18 14:01:00,
2013-11-18 06:03:00,47.3,46.5,29.32,SSE,150,0.0,0.0,97,0.00,,---,0.00,VWS V13.01,2013-11-18 14:03:00,
2013-11-18 06:04:00,47.3,46.5,29.32,SSE,150,0.0,0.0,97,0.00,,---,0.00,VWS V13.01,2013-11-18 14:04:00,
2013-11-18 06:06:00,47.3,46.5,29.32,SSE,150,0.0,0.0,97,0.00,,---,0.00,VWS V13.01,2013-11-18 14:06:00,
2013-11-18 06:07:00,47.3,46.5,29.32,SSE,150,0.0,0.0,97,0.00,,---,0.00,VWS V13.01,2013-11-18 14:07:00,
2013-11-18 06:08:00,47.3,46.5,29.32,SSE,150,0.0,0.0,97,0.00,,---,0.00,VWS V13.01,2013-11-18 14:08:00,
2013-11-18 06:09:00,47.3,46.5,29.32,SSE,150,0.0,0.0,97,0.00,,---,0.00,VWS V13.01,2013-11-18 14:09:00,
2013-11-18 06:11:00,47.3,46.5,29.32,SSE,150,0.0,0.0,97,0.00,,---,0.00,VWS V13.01,2013-11-18 14:11:00,
2013-11-18 06:12:00,47.3,46.5,29.32,SSE,150,0.0,0.0,97,0.00,,---,0.00,VWS V13.01,2013-11-18 14:12:00,
2013-11-18 06:13:00,47.3,46.5,29.32,SSE,150,0.0,0.0,97,0.00,,---,0.00,VWS V13.01,2013-11-18 14:13:00,
2013-11-18 06:14:00,47.3,46.5,29.32,SSE,150,0.0,0.0,97,0.00,,---,0.00,VWS V13.01,2013-11-18 14:14:00,
2013-11-18 06:16:00,47.3,46.5,29.32,SSE,150,0.0,0.0,97,0.00,,---,0.00,VWS V13.01,2013-11-18 14:16:00,
2013-11-18 06:17:00,47.5,46.7,29.32,SSE,150,0.0,0.0,97,0.00,,---,0.00,VWS V13.01,2013-11-18 14:17:00,
2013-11-18 06:18:00,47.5,46.7,29.32,SSE,150,0.0,0.0,97,0.00,,---,0.00,VWS V13.01,2013-11-18 14:18:00,
2013-11-18 06:19:00,47.5,46.7,29.32,SSE,150,0.0,0.0,97,0.00,,---,0.00,VWS V13.01,2013-11-18 14:19:00,
2013-11-18 06:21:00,47.3,46.5,29.32,SSE,150,0.0,0.0,97,0.00,,---,0.00,VWS V13.01,2013-11-18 14:21:00,
2013-11-18 06:22:00,47.3,46.5,29.32,SSE,150,0.0,0.0,97,0.00,,---,0.00,VWS V13.01,2013-11-18 14:22:00,
2013-11-18 06:23:00,47.5,46.7,29.32,East,100,0.0,0.0,97,0.00,,---,0.00,VWS V13.01,2013-11-18 14:23:00,
2013-11-18 06:24:00,47.5,46.7,29.32,East,100,0.0,0.0,97,0.00,,---,0.00,VWS V13.01,2013-11-18 14:24:00,
2013-11-18 06:26:00,47.5,46.7,29.32,East,100,0.0,0.0,97,0.00,,---,0.00,VWS V13.01,2013-11-18 14:26:00,
2013-11-18 06:27:00,47.5,46.7,29.32,East,100,0.0,0.0,97,0.00,,---,0.00,VWS V13.01,2013-11-18 14:27:00,
2013-11-18 06:28:00,47.5,46.7,29.32,East,100,0.0,0.0,97,0.00,,---,0.00,VWS V13.01,2013-11-18 14:28:00,
2013-11-18 06:29:00,47.5,46.7,29.32,East,100,0.0,0.0,97,0.00,,---,0.00,VWS V13.01,2013-11-18 14:29:00,
2013-11-18 06:31:00,47.5,46.7,29.32,East,100,0.0,0.0,97,0.00,,---,0.00,VWS V13.01,2013-11-18 14:31:00,
2013-11-18 06:32:00,47.5,46.7,29.29,East,100,0.0,0.0,97,0.00,,---,0.00,VWS V13.01,2013-11-18 14:32:00,
2013-11-18 06:33:00,47.5,46.7,29.29,East,100,0.0,0.0,97,0.00,,---,0.00,VWS V13.01,2013-11-18 14:33:00,
2013-11-18 06:34:00,47.5,46.7,29.29,East,100,0.0,0.0,97,0.00,,---,0.00,VWS V13.01,2013-11-18 14:34:00,
2013-11-18 06:37:00,47.5,46.7,29.29,East,100,0.0,0.0,97,0.00,,---,0.00,VWS V13.01,2013-11-18 14:37:00,
2013-11-18 06:38:00,47.5,46.7,29.29,East,100,0.0,0.0,97,0.00,,---,0.00,VWS V13.01,2013-11-18 14:38:00,
2013-11-18 06:39:00,47.5,46.7,29.29,East,100,0.0,0.0,97,0.00,,---,0.00,VWS V13.01,2013-11-18 14:39:00,
2013-11-18 06:42:00,47.3,46.5,29.29,East,100,0.0,0.0,97,0.00,,---,0.00,VWS V13.01,2013-11-18 14:42:00,
2013-11-18 06:43:00,47.3,46.5,29.29,East,100,0.0,0.0,97,0.00,,---,0.00,VWS V13.01,2013-11-18 14:43:00,
2013-11-18 06:44:00,47.3,46.5,29.29,East,100,0.0,0.0,97,0.00,,---,0.00,VWS V13.01,2013-11-18 14:44:00,
2013-11-18 06:45:00,47.3,46.5,29.29,East,100,0.0,0.0,97,0.00,,---,0.00,VWS V13.01,2013-11-18 14:45:00,
2013-11-18 06:47:00,47.3,46.5,29.29,East,100,0.0,0.0,97,0.00,,---,0.00,VWS V13.01,2013-11-18 14:47:00,
2013-11-18 06:48:00,47.3,46.5,29.29,East,100,0.0,0.0,97,0.00,,---,0.00,VWS V13.01,2013-11-18 14:48:00,
2013-11-18 06:49:00,47.3,46.5,29.29,East,100,0.0,0.0,97,0.00,,---,0.00,VWS V13.01,2013-11-18 14:49:00,
2013-11-18 06:50:00,47.3,46.5,29.29,East,100,0.0,0.0,97,0.00,,---,0.00,VWS V13.01,2013-11-18 14:50:00,
2013-11-18 06:52:00,47.3,46.5,29.29,East,100,0.0,0.0,97,0.00,,---,0.00,VWS V13.01,2013-11-18 14:52:00,
2013-11-18 06:53:00,47.5,46.7,29.29,East,100,0.0,0.0,97,0.00,,---,0.00,VWS V13.01,2013-11-18 14:53:00,
2013-11-18 06:55:00,47.5,46.7,29.29,East,100,0.0,0.0,97,0.00,,---,0.00,VWS V13.01,2013-11-18 14:55:00,
2013-11-18 06:57:00,47.5,46.7,29.29,East,100,0.0,0.0,97,0.00,,---,0.00,VWS V13.01,2013-11-18 14:57:00,
2013-11-18 06:59:00,47.5,46.7,29.29,East,100,0.0,0.0,97,0.00,,---,0.00,VWS V13.01,2013-11-18 14:59:00,
2013-11-18 07:00:00,47.5,46.7,29.29,East,100,0.0,0.0,97,0.00,,---,0.00,VWS V13.01,2013-11-18 15:00:00,
2013-11-18 07:01:00,47.5,46.7,29.29,East,100,0.0,0.0,97,0.00,,---,0.00,VWS V13.01,2013-11-18 15:01:00,
2013-11-18 07:02:00,47.5,46.7,29.29,East,100,0.0,0.0,97,0.00,,---,0.00,VWS V13.01,2013-11-18 15:02:00,
2013-11-18 07:03:00,47.5,46.7,29.29,East,100,0.0,0.0,97,0.00,,---,0.00,VWS V13.01,2013-11-18 15:03:00,
2013-11-18 07:04:00,47.5,46.7,29.29,East,100,0.0,0.0,97,0.00,,---,0.00,VWS V13.01,2013-11-18 15:04:00,
2013-11-18 07:05:00,47.5,46.7,29.29,East,100,0.0,0.0,97,0.00,,---,0.00,VWS V13.01,2013-11-18 15:05:00,
2013-11-18 07:06:00,47.5,46.7,29.29,East,100,0.0,0.0,97,0.00,,---,0.00,VWS V13.01,2013-11-18 15:06:00,
2013-11-18 07:07:00,47.5,46.7,29.29,East,100,0.0,0.0,97,0.00,,---,0.00,VWS V13.01,2013-11-18 15:07:00,
2013-11-18 07:08:00,47.5,46.7,29.29,East,100,0.0,0.0,97,0.00,,---,0.00,VWS V13.01,2013-11-18 15:08:00,
2013-11-18 07:09:00,47.5,46.7,29.29,East,100,0.0,0.0,97,0.00,,---,0.00,VWS V13.01,2013-11-18 15:09:00,
2013-11-18 07:10:00,47.5,46.7,29.29,East,100,0.0,0.0,97,0.00,,---,0.00,VWS V13.01,2013-11-18 15:10:00,
2013-11-18 07:12:00,47.5,46.7,29.29,East,100,0.0,0.0,97,0.00,,---,0.00,VWS V13.01,2013-11-18 15:12:00,
2013-11-18 07:13:00,47.5,46.7,29.29,East,100,0.0,0.0,97,0.00,,---,0.00,VWS V13.01,2013-11-18 15:13:00,
2013-11-18 07:14:00,47.5,46.7,29.29,East,100,0.0,0.0,97,0.00,,---,0.00,VWS V13.01,2013-11-18 15:14:00,
2013-11-18 07:15:00,47.5,46.7,29.29,East,100,0.0,0.0,97,0.00,,---,0.00,VWS V13.01,2013-11-18 15:15:00,
2013-11-18 07:17:00,47.5,46.7,29.29,East,100,0.0,0.0,97,0.00,,---,0.00,VWS V13.01,2013-11-18 15:17:00,
2013-11-18 07:18:00,47.5,46.7,29.29,East,100,0.0,0.0,97,0.00,,---,0.00,VWS V13.01,2013-11-18 15:18:00,
2013-11-18 07:20:00,47.5,46.7,29.29,East,100,0.0,0.0,97,0.04,,---,0.04,VWS V13.01,2013-11-18 15:20:00,
2013-11-18 07:21:00,47.5,46.7,29.29,East,100,0.0,0.0,97,0.04,,---,0.04,VWS V13.01,2013-11-18 15:21:00,
2013-11-18 07:22:00,47.5,46.7,29.29,East,100,0.0,0.0,97,0.04,,---,0.04,VWS V13.01,2013-11-18 15:22:00,
2013-11-18 07:23:00,47.5,46.7,29.29,East,100,0.0,0.0,97,0.04,,---,0.04,VWS V13.01,2013-11-18 15:23:00,
2013-11-18 07:25:00,47.5,46.7,29.29,East,100,0.0,0.0,97,0.04,,---,0.04,VWS V13.01,2013-11-18 15:25:00,
2013-11-18 07:26:00,47.5,46.7,29.29,East,100,0.0,0.0,97,0.04,,---,0.04,VWS V13.01,2013-11-18 15:26:00,
2013-11-18 07:27:00,47.5,46.7,29.29,East,100,0.0,0.0,97,0.04,,---,0.04,VWS V13.01,2013-11-18 15:27:00,
2013-11-18 07:28:00,47.5,46.7,29.29,East,100,0.0,0.0,97,0.04,,---,0.04,VWS V13.01,2013-11-18 15:28:00,
2013-11-18 07:30:00,47.5,46.7,29.29,East,100,0.0,0.0,97,0.04,,---,0.04,VWS V13.01,2013-11-18 15:30:00,
2013-11-18 07:31:00,47.5,46.7,29.29,East,100,0.0,0.0,97,0.04,,---,0.04,VWS V13.01,2013-11-18 15:31:00,
2013-11-18 07:32:00,47.5,47.0,29.29,East,100,0.0,0.0,98,0.04,,---,0.04,VWS V13.01,2013-11-18 15:32:00,
2013-11-18 07:33:00,47.5,47.0,29.29,East,100,0.0,0.0,98,0.04,,---,0.04,VWS V13.01,2013-11-18 15:33:00,
2013-11-18 07:34:00,47.5,47.0,29.29,East,100,0.0,0.0,98,0.04,,---,0.04,VWS V13.01,2013-11-18 15:34:00,
2013-11-18 07:35:00,47.5,47.0,29.29,East,100,0.0,0.0,98,0.04,,---,0.04,VWS V13.01,2013-11-18 15:35:00,
2013-11-18 07:36:00,47.5,47.0,29.29,East,100,0.0,0.0,98,0.04,,---,0.04,VWS V13.01,2013-11-18 15:36:00,
2013-11-18 07:37:00,47.5,47.0,29.29,East,100,0.0,0.0,98,0.04,,---,0.04,VWS V13.01,2013-11-18 15:37:00,
2013-11-18 07:38:00,47.5,47.0,29.29,East,100,0.0,0.0,98,0.04,,---,0.04,VWS V13.01,2013-11-18 15:38:00,
2013-11-18 07:39:00,47.5,47.0,29.29,East,100,0.0,0.0,98,0.04,,---,0.04,VWS V13.01,2013-11-18 15:39:00,
2013-11-18 07:40:00,47.5,47.0,29.29,East,100,0.0,0.0,98,0.04,,---,0.04,VWS V13.01,2013-11-18 15:40:00,
2013-11-18 07:41:00,47.5,47.0,29.29,East,100,0.0,0.0,98,0.04,,---,0.04,VWS V13.01,2013-11-18 15:41:00,
2013-11-18 07:42:00,47.5,47.0,29.29,East,100,0.0,0.0,98,0.04,,---,0.04,VWS V13.01,2013-11-18 15:42:00,
2013-11-18 07:43:00,47.5,47.0,29.29,East,100,0.0,0.0,98,0.04,,---,0.04,VWS V13.01,2013-11-18 15:43:00,
2013-11-18 07:44:00,47.5,47.0,29.29,East,100,0.0,0.0,98,0.04,,---,0.04,VWS V13.01,2013-11-18 15:44:00,
2013-11-18 07:45:00,47.5,47.0,29.29,East,100,0.0,0.0,98,0.04,,---,0.04,VWS V13.01,2013-11-18 15:45:00,
2013-11-18 07:46:00,47.5,47.0,29.29,East,100,0.0,0.0,98,0.04,,---,0.04,VWS V13.01,2013-11-18 15:46:00,
2013-11-18 07:47:00,47.5,47.0,29.29,East,100,0.0,0.0,98,0.04,,---,0.04,VWS V13.01,2013-11-18 15:47:00,
2013-11-18 07:48:00,47.5,47.0,29.29,East,100,0.0,0.0,98,0.04,,---,0.04,VWS V13.01,2013-11-18 15:48:00,
2013-11-18 07:49:00,47.5,47.0,29.29,East,100,0.0,0.0,98,0.04,,---,0.04,VWS V13.01,2013-11-18 15:49:00,
2013-11-18 07:50:00,47.5,47.0,29.29,East,100,0.0,0.0,98,0.04,,---,0.04,VWS V13.01,2013-11-18 15:50:00,
2013-11-18 07:51:00,47.5,47.0,29.29,East,100,0.0,0.0,98,0.04,,---,0.04,VWS V13.01,2013-11-18 15:51:00,
2013-11-18 07:52:00,47.5,47.0,29.29,East,100,0.0,0.0,98,0.04,,---,0.04,VWS V13.01,2013-11-18 15:52:00,
2013-11-18 07:54:00,47.5,47.0,29.29,East,100,0.0,0.0,98,0.04,,---,0.04,VWS V13.01,2013-11-18 15:54:00,
2013-11-18 07:55:00,47.5,47.0,29.29,East,100,0.0,0.0,98,0.04,,---,0.04,VWS V13.01,2013-11-18 15:55:00,
2013-11-18 07:56:00,47.5,47.0,29.29,East,100,0.0,0.0,98,0.04,,---,0.04,VWS V13.01,2013-11-18 15:56:00,
2013-11-18 07:57:00,47.5,47.0,29.29,East,100,0.0,0.0,98,0.04,,---,0.04,VWS V13.01,2013-11-18 15:57:00,
2013-11-18 07:58:00,47.5,47.0,29.29,East,100,0.0,0.0,98,0.04,,---,0.04,VWS V13.01,2013-11-18 15:58:00,
2013-11-18 08:00:00,47.5,47.0,29.29,East,100,0.0,0.0,98,0.04,,---,0.04,VWS V13.01,2013-11-18 16:00:00,
2013-11-18 08:01:00,47.5,47.0,29.29,East,100,0.0,0.0,98,0.04,,---,0.04,VWS V13.01,2013-11-18 16:01:00,
2013-11-18 08:02:00,47.5,47.0,29.29,East,100,0.0,0.0,98,0.04,,---,0.04,VWS V13.01,2013-11-18 16:02:00,
2013-11-18 08:03:00,47.5,47.0,29.29,East,100,0.0,0.0,98,0.04,,---,0.04,VWS V13.01,2013-11-18 16:03:00,
2013-11-18 08:05:00,47.5,47.0,29.29,East,100,0.0,0.0,98,0.04,,---,0.04,VWS V13.01,2013-11-18 16:05:00,
2013-11-18 08:06:00,47.5,47.0,29.29,East,100,0.0,0.0,98,0.04,,---,0.04,VWS V13.01,2013-11-18 16:06:00,
2013-11-18 08:07:00,47.5,47.0,29.29,East,100,0.0,0.0,98,0.04,,---,0.04,VWS V13.01,2013-11-18 16:07:00,
2013-11-18 08:08:00,47.5,47.0,29.29,East,100,0.0,0.0,98,0.04,,---,0.04,VWS V13.01,2013-11-18 16:08:00,
2013-11-18 08:10:00,47.5,47.0,29.29,East,100,0.0,0.0,98,0.04,,---,0.04,VWS V13.01,2013-11-18 16:10:00,
2013-11-18 08:11:00,47.7,47.1,29.29,East,100,0.0,0.0,98,0.04,,---,0.04,VWS V13.01,2013-11-18 16:11:00,
2013-11-18 08:13:00,47.7,47.1,29.29,East,100,0.0,0.0,98,0.04,,---,0.04,VWS V13.01,2013-11-18 16:13:00,
2013-11-18 08:15:00,47.7,47.1,29.29,East,100,0.0,0.0,98,0.04,,---,0.04,VWS V13.01,2013-11-18 16:15:00,
2013-11-18 08:16:00,47.7,47.1,29.29,East,100,0.0,0.0,98,0.04,,---,0.04,VWS V13.01,2013-11-18 16:16:00,
2013-11-18 08:18:00,47.7,47.1,29.29,East,100,0.0,0.0,98,0.04,,---,0.04,VWS V13.01,2013-11-18 16:18:00,
2013-11-18 08:19:00,47.7,47.1,29.29,East,100,0.0,0.0,98,0.04,,---,0.04,VWS V13.01,2013-11-18 16:19:00,
2013-11-18 08:21:00,47.5,47.0,29.29,East,100,0.0,0.0,98,0.04,,---,0.04,VWS V13.01,2013-11-18 16:21:00,
2013-11-18 08:22:00,47.5,47.0,29.29,East,100,0.0,0.0,98,0.00,,---,0.04,VWS V13.01,2013-11-18 16:22:00,
2013-11-18 08:23:00,47.5,47.0,29.29,East,100,0.0,0.0,98,0.00,,---,0.04,VWS V13.01,2013-11-18 16:23:00,
2013-11-18 08:24:00,47.5,47.0,29.29,East,100,0.0,0.0,98,0.00,,---,0.04,VWS V13.01,2013-11-18 16:24:00,
2013-11-18 08:26:00,47.7,47.1,29.29,East,100,0.0,0.0,98,0.00,,---,0.04,VWS V13.01,2013-11-18 16:26:00,
2013-11-18 08:27:00,47.7,47.1,29.29,East,100,0.0,0.0,98,0.00,,---,0.04,VWS V13.01,2013-11-18 16:27:00,
2013-11-18 08:28:00,47.7,47.1,29.29,East,100,0.0,0.0,98,0.00,,---,0.04,VWS V13.01,2013-11-18 16:28:00,
2013-11-18 08:29:00,47.7,47.1,29.29,East,100,0.0,0.0,98,0.00,,---,0.04,VWS V13.01,2013-11-18 16:29:00,
2013-11-18 08:31:00,47.7,47.1,29.29,SE,126,0.0,0.0,98,0.00,,---,0.04,VWS V13.01,2013-11-18 16:31:00,
2013-11-18 08:32:00,47.7,47.1,29.29,SE,126,0.0,0.0,98,0.00,,---,0.04,VWS V13.01,2013-11-18 16:32:00,
2013-11-18 08:33:00,47.7,47.1,29.29,SE,126,0.0,0.0,98,0.00,,---,0.04,VWS V13.01,2013-11-18 16:33:00,
2013-11-18 08:34:00,47.7,47.1,29.29,SE,126,0.0,0.0,98,0.00,,---,0.04,VWS V13.01,2013-11-18 16:34:00,
2013-11-18 08:36:00,47.7,47.1,29.29,SE,126,0.0,0.0,98,0.00,,---,0.04,VWS V13.01,2013-11-18 16:36:00,
2013-11-18 08:38:00,47.7,47.1,29.29,SE,126,0.0,0.0,98,0.00,,---,0.04,VWS V13.01,2013-11-18 16:38:00,
2013-11-18 08:39:00,47.7,47.1,29.29,SE,126,0.0,0.0,98,0.00,,---,0.04,VWS V13.01,2013-11-18 16:39:00,
2013-11-18 08:40:00,47.7,47.1,29.29,SE,126,0.0,0.0,98,0.00,,---,0.04,VWS V13.01,2013-11-18 16:40:00,
2013-11-18 08:41:00,47.7,47.1,29.29,SE,126,0.0,0.0,98,0.00,,---,0.04,VWS V13.01,2013-11-18 16:41:00,
2013-11-18 08:43:00,47.8,47.3,29.29,SE,126,0.0,0.0,98,0.00,,---,0.04,VWS V13.01,2013-11-18 16:43:00,
2013-11-18 08:44:00,47.8,47.3,29.29,SE,126,0.0,0.0,98,0.00,,---,0.04,VWS V13.01,2013-11-18 16:44:00,
2013-11-18 08:45:00,47.8,47.3,29.29,SE,126,0.0,0.0,98,0.00,,---,0.04,VWS V13.01,2013-11-18 16:45:00,
2013-11-18 08:46:00,47.8,47.3,29.29,SE,126,0.0,0.0,98,0.00,,---,0.04,VWS V13.01,2013-11-18 16:46:00,
2013-11-18 08:48:00,47.8,47.3,29.29,SE,126,0.0,0.0,98,0.00,,---,0.04,VWS V13.01,2013-11-18 16:48:00,
2013-11-18 08:49:00,47.8,47.3,29.29,SE,126,0.0,0.0,98,0.00,,---,0.04,VWS V13.01,2013-11-18 16:49:00,
2013-11-18 08:50:00,47.8,47.3,29.29,SE,126,0.0,0.0,98,0.00,,---,0.04,VWS V13.01,2013-11-18 16:50:00,
2013-11-18 08:51:00,47.8,47.3,29.29,SE,126,0.0,0.0,98,0.00,,---,0.04,VWS V13.01,2013-11-18 16:51:00,
2013-11-18 08:53:00,47.8,47.3,29.29,SE,126,0.0,0.0,98,0.00,,---,0.04,VWS V13.01,2013-11-18 16:53:00,
2013-11-18 08:54:00,47.8,47.3,29.29,SE,126,0.0,0.0,98,0.00,,---,0.04,VWS V13.01,2013-11-18 16:54:00,
2013-11-18 08:55:00,47.8,47.3,29.29,SE,126,0.0,0.0,98,0.00,,---,0.04,VWS V13.01,2013-11-18 16:55:00,
2013-11-18 08:56:00,47.8,47.3,29.29,SE,126,0.0,0.0,98,0.00,,---,0.04,VWS V13.01,2013-11-18 16:56:00,
2013-11-18 08:57:00,47.8,47.3,29.29,SE,126,0.0,0.0,98,0.00,,---,0.04,VWS V13.01,2013-11-18 16:57:00,
2013-11-18 08:58:00,47.8,47.3,29.29,SE,126,0.0,0.0,98,0.00,,---,0.04,VWS V13.01,2013-11-18 16:58:00,
2013-11-18 08:59:00,47.8,47.3,29.29,SE,126,0.0,0.0,98,0.00,,---,0.04,VWS V13.01,2013-11-18 16:59:00,
2013-11-18 09:00:00,47.8,47.3,29.29,SE,126,0.0,0.0,98,0.00,,---,0.04,VWS V13.01,2013-11-18 17:00:00,
2013-11-18 09:02:00,47.8,47.3,29.29,SE,126,0.0,0.0,98,0.00,,---,0.04,VWS V13.01,2013-11-18 17:02:00,
2013-11-18 09:03:00,47.8,47.3,29.29,SE,126,0.0,0.0,98,0.00,,---,0.04,VWS V13.01,2013-11-18 17:03:00,
2013-11-18 09:04:00,47.8,47.3,29.29,SE,126,0.0,0.0,98,0.00,,---,0.04,VWS V13.01,2013-11-18 17:04:00,
2013-11-18 09:05:00,47.8,47.3,29.29,SE,126,0.0,0.0,98,0.00,,---,0.04,VWS V13.01,2013-11-18 17:05:00,
2013-11-18 09:07:00,47.8,47.3,29.29,SE,126,0.0,0.0,98,0.00,,---,0.04,VWS V13.01,2013-11-18 17:07:00,
2013-11-18 09:09:00,48.0,47.5,29.29,SE,126,0.0,0.0,98,0.00,,---,0.04,VWS V13.01,2013-11-18 17:09:00,
2013-11-18 09:10:00,48.0,47.5,29.29,SE,126,0.0,0.0,98,0.00,,---,0.04,VWS V13.01,2013-11-18 17:10:00,
2013-11-18 09:12:00,48.0,47.5,29.29,SE,126,0.0,0.0,98,0.00,,---,0.04,VWS V13.01,2013-11-18 17:12:00,
2013-11-18 09:14:00,48.0,47.5,29.29,SE,126,0.0,0.0,98,0.00,,---,0.04,VWS V13.01,2013-11-18 17:14:00,
2013-11-18 09:15:00,48.0,47.5,29.29,SE,126,0.0,0.0,98,0.00,,---,0.04,VWS V13.01,2013-11-18 17:15:00,
2013-11-18 09:16:00,48.0,47.5,29.29,SE,126,0.0,0.0,98,0.00,,---,0.04,VWS V13.01,2013-11-18 17:16:00,
2013-11-18 09:17:00,48.0,47.5,29.29,SE,126,0.0,0.0,98,0.00,,---,0.04,VWS V13.01,2013-11-18 17:17:00,
2013-11-18 09:19:00,48.0,47.5,29.29,SE,126,0.0,0.0,98,0.00,,---,0.04,VWS V13.01,2013-11-18 17:19:00,
2013-11-18 09:20:00,48.0,47.5,29.29,SE,126,0.0,0.0,98,0.00,,---,0.04,VWS V13.01,2013-11-18 17:20:00,
2013-11-18 09:21:00,48.0,47.5,29.29,SE,126,0.0,0.0,98,0.00,,---,0.04,VWS V13.01,2013-11-18 17:21:00,
2013-11-18 09:22:00,48.0,47.5,29.29,SE,126,0.0,0.0,98,0.00,,---,0.04,VWS V13.01,2013-11-18 17:22:00,
2013-11-18 09:24:00,48.0,47.5,29.29,SE,126,0.0,0.0,98,0.00,,---,0.04,VWS V13.01,2013-11-18 17:24:00,
2013-11-18 09:25:00,48.2,47.7,29.29,SE,125,0.0,0.0,98,0.00,,---,0.04,VWS V13.01,2013-11-18 17:25:00,
2013-11-18 09:26:00,48.2,47.7,29.29,SE,125,0.0,0.0,98,0.00,,---,0.04,VWS V13.01,2013-11-18 17:26:00,
2013-11-18 09:27:00,48.2,47.7,29.29,SE,125,0.0,0.0,98,0.00,,---,0.04,VWS V13.01,2013-11-18 17:27:00,
2013-11-18 09:29:00,48.2,47.7,29.29,SE,126,0.0,0.0,98,0.00,,---,0.04,VWS V13.01,2013-11-18 17:29:00,
2013-11-18 09:30:00,48.2,47.7,29.29,SE,126,0.0,0.0,98,0.00,,---,0.04,VWS V13.01,2013-11-18 17:30:00,
2013-11-18 09:31:00,48.2,47.7,29.29,SE,126,0.0,0.0,98,0.00,,---,0.04,VWS V13.01,2013-11-18 17:31:00,
2013-11-18 09:32:00,48.2,47.7,29.29,SE,126,0.0,0.0,98,0.00,,---,0.04,VWS V13.01,2013-11-18 17:32:00,
2013-11-18 09:35:00,48.2,47.7,29.29,SE,126,0.0,0.0,98,0.00,,---,0.04,VWS V13.01,2013-11-18 17:35:00,
2013-11-18 09:37:00,48.2,47.7,29.29,SE,126,0.0,0.0,98,0.00,,---,0.04,VWS V13.01,2013-11-18 17:37:00,
2013-11-18 09:38:00,48.2,47.7,29.29,SE,125,0.0,0.0,98,0.00,,---,0.04,VWS V13.01,2013-11-18 17:38:00,
2013-11-18 09:40:00,48.2,47.7,29.29,SE,125,0.0,0.0,98,0.00,,---,0.04,VWS V13.01,2013-11-18 17:40:00,
2013-11-18 09:41:00,48.2,47.7,29.29,SE,125,0.0,0.0,98,0.00,,---,0.04,VWS V13.01,2013-11-18 17:41:00,
2013-11-18 09:42:00,48.2,47.7,29.29,SE,125,0.0,0.0,98,0.00,,---,0.04,VWS V13.01,2013-11-18 17:42:00,
2013-11-18 09:43:00,48.2,47.7,29.29,SE,125,0.0,0.0,98,0.00,,---,0.04,VWS V13.01,2013-11-18 17:43:00,
2013-11-18 09:45:00,48.2,47.7,29.29,SE,125,0.0,0.0,98,0.00,,---,0.04,VWS V13.01,2013-11-18 17:45:00,
2013-11-18 09:46:00,48.2,47.7,29.29,SE,125,0.0,0.0,98,0.00,,---,0.04,VWS V13.01,2013-11-18 17:46:00,
2013-11-18 09:47:00,48.4,47.8,29.29,SE,125,0.0,0.0,98,0.00,,---,0.04,VWS V13.01,2013-11-18 17:47:00,
2013-11-18 09:48:00,48.4,47.8,29.29,SE,125,0.0,0.0,98,0.00,,---,0.04,VWS V13.01,2013-11-18 17:48:00,
2013-11-18 09:50:00,48.4,47.8,29.29,SE,125,0.0,0.0,98,0.00,,---,0.04,VWS V13.01,2013-11-18 17:50:00,
2013-11-18 09:51:00,48.4,47.8,29.29,SE,125,0.0,0.0,98,0.00,,---,0.04,VWS V13.01,2013-11-18 17:51:00,
2013-11-18 09:52:00,48.4,47.8,29.29,SE,125,0.0,0.0,98,0.00,,---,0.04,VWS V13.01,2013-11-18 17:52:00,
2013-11-18 09:53:00,48.4,47.8,29.29,SE,125,0.0,0.0,98,0.00,,---,0.04,VWS V13.01,2013-11-18 17:53:00,
2013-11-18 09:55:00,48.4,47.8,29.29,SE,125,0.0,0.0,98,0.00,,---,0.04,VWS V13.01,2013-11-18 17:55:00,
2013-11-18 09:56:00,48.4,47.8,29.29,SE,125,0.0,0.0,98,0.00,,---,0.04,VWS V13.01,2013-11-18 17:56:00,
2013-11-18 09:57:00,48.4,47.8,29.29,SE,125,0.0,0.0,98,0.00,,---,0.04,VWS V13.01,2013-11-18 17:57:00,
2013-11-18 09:58:00,48.6,48.0,29.29,SE,125,0.0,0.0,98,0.00,,---,0.04,VWS V13.01,2013-11-18 17:58:00,
2013-11-18 10:00:00,48.6,48.0,29.29,SE,124,0.0,0.0,98,0.00,,---,0.04,VWS V13.01,2013-11-18 18:00:00,
2013-11-18 10:01:00,48.6,48.0,29.29,SE,124,0.0,0.0,98,0.00,,---,0.04,VWS V13.01,2013-11-18 18:01:00,
2013-11-18 10:02:00,48.6,48.0,29.29,SE,124,0.0,0.0,98,0.00,,---,0.04,VWS V13.01,2013-11-18 18:02:00,
2013-11-18 10:03:00,48.6,48.0,29.29,SE,124,0.0,0.0,98,0.00,,---,0.04,VWS V13.01,2013-11-18 18:03:00,
2013-11-18 10:06:00,48.6,48.0,29.29,SE,124,0.0,0.0,98,0.00,,---,0.04,VWS V13.01,2013-11-18 18:06:00,
2013-11-18 10:07:00,48.6,48.0,29.29,ESE,123,0.0,0.0,98,0.00,,---,0.04,VWS V13.01,2013-11-18 18:07:00,
2013-11-18 10:08:00,48.6,48.0,29.29,ESE,123,0.0,0.0,98,0.00,,---,0.04,VWS V13.01,2013-11-18 18:08:00,
2013-11-18 10:11:00,48.6,48.0,29.29,ESE,123,0.0,0.0,98,0.00,,---,0.04,VWS V13.01,2013-11-18 18:11:00,
2013-11-18 10:12:00,48.6,48.0,29.29,ESE,123,0.0,0.0,98,0.00,,---,0.04,VWS V13.01,2013-11-18 18:12:00,
2013-11-18 10:13:00,48.6,48.0,29.29,ESE,123,0.0,0.0,98,0.00,,---,0.04,VWS V13.01,2013-11-18 18:13:00,
2013-11-18 10:14:00,48.7,48.2,29.29,ESE,123,0.0,0.0,98,0.00,,---,0.04,VWS V13.01,2013-11-18 18:14:00,
2013-11-18 10:16:00,48.7,48.2,29.29,ESE,123,0.0,0.0,98,0.00,,---,0.04,VWS V13.01,2013-11-18 18:16:00,
2013-11-18 10:17:00,48.7,48.2,29.29,ESE,123,0.0,0.0,98,0.00,,---,0.04,VWS V13.01,2013-11-18 18:17:00,
2013-11-18 10:18:00,48.7,48.2,29.29,ESE,123,0.0,0.0,98,0.00,,---,0.04,VWS V13.01,2013-11-18 18:18:00,
2013-11-18 10:19:00,48.7,48.2,29.26,ESE,123,0.0,0.0,98,0.00,,---,0.04,VWS V13.01,2013-11-18 18:19:00,
2013-11-18 10:21:00,48.7,48.2,29.26,ESE,123,0.0,0.0,98,0.00,,---,0.04,VWS V13.01,2013-11-18 18:21:00,
2013-11-18 10:22:00,48.9,48.4,29.26,ESE,123,0.0,0.0,98,0.00,,---,0.04,VWS V13.01,2013-11-18 18:22:00,
2013-11-18 10:23:00,48.9,48.4,29.26,ESE,123,0.0,0.0,98,0.00,,---,0.04,VWS V13.01,2013-11-18 18:23:00,
2013-11-18 10:24:00,48.9,48.4,29.26,ESE,123,0.0,0.0,98,0.00,,---,0.04,VWS V13.01,2013-11-18 18:24:00,
2013-11-18 10:26:00,48.9,48.4,29.26,ESE,123,0.0,0.0,98,0.00,,---,0.04,VWS V13.01,2013-11-18 18:26:00,
2013-11-18 10:27:00,48.9,48.4,29.26,ESE,123,0.0,0.0,98,0.00,,---,0.04,VWS V13.01,2013-11-18 18:27:00,
2013-11-18 10:28:00,48.9,48.4,29.26,ESE,123,0.0,0.0,98,0.00,,---,0.04,VWS V13.01,2013-11-18 18:28:00,
2013-11-18 10:29:00,49.1,48.6,29.26,ESE,123,0.0,0.0,98,0.00,,---,0.04,VWS V13.01,2013-11-18 18:29:00,
2013-11-18 10:32:00,49.1,48.6,29.26,ESE,123,0.0,0.0,98,0.00,,---,0.04,VWS V13.01,2013-11-18 18:32:00,
2013-11-18 10:33:00,49.1,48.6,29.26,ESE,123,0.0,0.0,98,0.00,,---,0.04,VWS V13.01,2013-11-18 18:33:00,
2013-11-18 10:34:00,49.1,48.6,29.26,ESE,123,0.0,0.0,98,0.00,,---,0.04,VWS V13.01,2013-11-18 18:34:00,
2013-11-18 10:37:00,49.1,48.6,29.26,ESE,123,0.0,0.0,98,0.00,,---,0.04,VWS V13.01,2013-11-18 18:37:00,
2013-11-18 10:38:00,49.1,48.6,29.26,ESE,123,0.0,0.0,98,0.00,,---,0.04,VWS V13.01,2013-11-18 18:38:00,
2013-11-18 10:39:00,49.1,48.6,29.26,ESE,123,0.0,0.0,98,0.00,,---,0.04,VWS V13.01,2013-11-18 18:39:00,
2013-11-18 10:42:00,49.3,48.7,29.26,ESE,123,0.0,0.0,98,0.04,,---,0.08,VWS V13.01,2013-11-18 18:42:00,
2013-11-18 10:43:00,49.3,48.7,29.26,ESE,123,0.0,0.0,98,0.04,,---,0.08,VWS V13.01,2013-11-18 18:43:00,
2013-11-18 10:44:00,49.3,48.7,29.26,ESE,123,0.0,0.0,98,0.04,,---,0.08,VWS V13.01,2013-11-18 18:44:00,
2013-11-18 10:45:00,49.3,48.7,29.26,ESE,123,0.0,0.0,98,0.04,,---,0.08,VWS V13.01,2013-11-18 18:45:00,
2013-11-18 10:47:00,49.3,48.7,29.26,ESE,123,0.0,0.0,98,0.04,,---,0.08,VWS V13.01,2013-11-18 18:47:00,
2013-11-18 10:48:00,49.3,48.7,29.26,ESE,123,0.0,0.0,98,0.04,,---,0.08,VWS V13.01,2013-11-18 18:48:00,
2013-11-18 10:49:00,49.3,48.7,29.26,ESE,123,0.0,0.0,98,0.04,,---,0.08,VWS V13.01,2013-11-18 18:49:00,
2013-11-18 10:50:00,49.3,48.7,29.26,ESE,123,0.0,0.0,98,0.04,,---,0.08,VWS V13.01,2013-11-18 18:50:00,
2013-11-18 10:52:00,49.3,48.7,29.26,East,96,0.0,0.0,98,0.04,,---,0.08,VWS V13.01,2013-11-18 18:52:00,
2013-11-18 10:53:00,49.3,48.7,29.26,East,96,0.0,0.0,98,0.04,,---,0.08,VWS V13.01,2013-11-18 18:53:00,
2013-11-18 10:54:00,49.3,48.7,29.26,East,96,0.0,0.0,98,0.04,,---,0.08,VWS V13.01,2013-11-18 18:54:00,
2013-11-18 10:55:00,49.3,48.7,29.26,East,96,0.0,0.0,98,0.04,,---,0.08,VWS V13.01,2013-11-18 18:55:00,
2013-11-18 10:57:00,49.5,48.9,29.26,East,96,0.0,0.0,98,0.04,,---,0.08,VWS V13.01,2013-11-18 18:57:00,
2013-11-18 10:58:00,49.5,48.9,29.26,East,96,0.0,0.0,98,0.04,,---,0.08,VWS V13.01,2013-11-18 18:58:00,
2013-11-18 11:00:00,49.5,48.9,29.26,East,97,0.0,0.0,98,0.04,,---,0.08,VWS V13.01,2013-11-18 19:00:00,
2013-11-18 11:01:00,49.5,48.9,29.26,East,97,0.0,0.0,98,0.04,,---,0.08,VWS V13.01,2013-11-18 19:01:00,
2013-11-18 11:02:00,49.5,48.9,29.26,East,96,0.0,0.0,98,0.04,,---,0.08,VWS V13.01,2013-11-18 19:02:00,
2013-11-18 11:03:00,49.5,48.9,29.26,East,96,0.0,0.0,98,0.04,,---,0.08,VWS V13.01,2013-11-18 19:03:00,
2013-11-18 11:05:00,49.5,48.9,29.26,East,96,0.0,0.0,98,0.04,,---,0.08,VWS V13.01,2013-11-18 19:05:00,
2013-11-18 11:06:00,49.5,48.9,29.26,East,96,0.0,0.0,98,0.04,,---,0.08,VWS V13.01,2013-11-18 19:06:00,
2013-11-18 11:08:00,49.6,49.1,29.26,East,96,0.0,0.0,98,0.04,,---,0.08,VWS V13.01,2013-11-18 19:08:00,
2013-11-18 11:09:00,49.6,49.1,29.26,East,96,0.0,0.0,98,0.04,,---,0.08,VWS V13.01,2013-11-18 19:09:00,
2013-11-18 11:10:00,49.6,49.1,29.26,East,96,0.0,0.0,98,0.04,,---,0.12,VWS V13.01,2013-11-18 19:10:00,
2013-11-18 11:11:00,49.6,49.1,29.26,East,96,0.0,0.0,98,0.08,,---,0.12,VWS V13.01,2013-11-18 19:11:00,
2013-11-18 11:13:00,49.6,49.1,29.26,East,96,0.0,0.0,98,0.08,,---,0.12,VWS V13.01,2013-11-18 19:13:00,
2013-11-18 11:14:00,49.6,49.1,29.26,East,96,0.0,0.0,98,0.08,,---,0.12,VWS V13.01,2013-11-18 19:14:00,
2013-11-18 11:15:00,49.6,49.1,29.26,East,96,0.0,0.0,98,0.08,,---,0.12,VWS V13.01,2013-11-18 19:15:00,
2013-11-18 11:16:00,49.6,49.1,29.26,East,96,0.0,0.0,98,0.08,,---,0.12,VWS V13.01,2013-11-18 19:16:00,
2013-11-18 11:18:00,49.6,49.1,29.26,East,96,0.0,0.0,98,0.08,,---,0.12,VWS V13.01,2013-11-18 19:18:00,
2013-11-18 11:19:00,49.6,49.1,29.26,East,96,0.0,0.0,98,0.08,,---,0.12,VWS V13.01,2013-11-18 19:19:00,
2013-11-18 11:20:00,49.6,49.1,29.26,East,96,0.0,0.0,98,0.08,,---,0.12,VWS V13.01,2013-11-18 19:20:00,
2013-11-18 11:21:00,49.6,49.1,29.26,East,96,0.0,0.0,98,0.08,,---,0.12,VWS V13.01,2013-11-18 19:21:00,
2013-11-18 11:22:00,49.6,49.1,29.26,East,96,0.0,0.0,98,0.08,,---,0.12,VWS V13.01,2013-11-18 19:22:00,
2013-11-18 11:23:00,49.8,49.3,29.26,East,96,0.0,0.0,98,0.08,,---,0.12,VWS V13.01,2013-11-18 19:23:00,
2013-11-18 11:24:00,49.8,49.3,29.26,East,96,0.0,0.0,98,0.08,,---,0.12,VWS V13.01,2013-11-18 19:24:00,
2013-11-18 11:25:00,49.8,49.3,29.26,East,96,0.0,0.0,98,0.08,,---,0.12,VWS V13.01,2013-11-18 19:25:00,
2013-11-18 11:26:00,49.8,49.3,29.26,East,96,0.0,0.0,98,0.08,,---,0.12,VWS V13.01,2013-11-18 19:26:00,
2013-11-18 11:27:00,49.8,49.3,29.26,East,96,0.0,0.0,98,0.08,,---,0.12,VWS V13.01,2013-11-18 19:27:00,
2013-11-18 11:28:00,49.8,49.3,29.26,East,96,0.0,0.0,98,0.08,,---,0.12,VWS V13.01,2013-11-18 19:28:00,
2013-11-18 11:29:00,49.8,49.3,29.26,East,96,0.0,0.0,98,0.08,,---,0.12,VWS V13.01,2013-11-18 19:29:00,
2013-11-18 11:30:00,49.8,49.3,29.26,East,96,0.0,0.0,98,0.08,,---,0.12,VWS V13.01,2013-11-18 19:30:00,
2013-11-18 11:31:00,49.8,49.3,29.26,East,96,0.0,0.0,98,0.08,,---,0.12,VWS V13.01,2013-11-18 19:31:00,
2013-11-18 11:32:00,49.8,49.3,29.26,East,96,0.0,0.0,98,0.08,,---,0.12,VWS V13.01,2013-11-18 19:32:00,
2013-11-18 11:33:00,49.8,49.3,29.26,East,96,0.0,0.0,98,0.08,,---,0.12,VWS V13.01,2013-11-18 19:33:00,
2013-11-18 11:34:00,49.8,49.3,29.26,East,96,0.0,0.0,98,0.08,,---,0.12,VWS V13.01,2013-11-18 19:34:00,
2013-11-18 11:35:00,50.0,49.5,29.23,East,96,0.0,0.0,98,0.08,,---,0.12,VWS V13.01,2013-11-18 19:35:00,
2013-11-18 11:36:00,50.0,49.5,29.23,East,96,0.0,0.0,98,0.08,,---,0.12,VWS V13.01,2013-11-18 19:36:00,
2013-11-18 11:37:00,50.0,49.5,29.23,East,96,0.0,0.0,98,0.08,,---,0.12,VWS V13.01,2013-11-18 19:37:00,
2013-11-18 11:38:00,50.0,49.5,29.23,East,96,0.0,0.0,98,0.08,,---,0.20,VWS V13.01,2013-11-18 19:38:00,
2013-11-18 11:39:00,50.0,49.5,29.23,East,96,0.0,0.0,98,0.16,,---,0.20,VWS V13.01,2013-11-18 19:39:00,
2013-11-18 11:41:00,50.0,49.5,29.23,East,96,0.0,0.0,98,0.16,,---,0.20,VWS V13.01,2013-11-18 19:41:00,
2013-11-18 11:42:00,50.0,49.5,29.23,East,96,0.0,0.0,98,0.12,,---,0.20,VWS V13.01,2013-11-18 19:42:00,
2013-11-18 11:43:00,50.0,49.5,29.23,East,96,0.0,0.0,98,0.12,,---,0.20,VWS V13.01,2013-11-18 19:43:00,
2013-11-18 11:45:00,50.0,49.5,29.23,East,96,0.0,0.0,98,0.12,,---,0.20,VWS V13.01,2013-11-18 19:45:00,
2013-11-18 11:46:00,50.0,49.5,29.23,East,96,0.0,0.0,98,0.12,,---,0.20,VWS V13.01,2013-11-18 19:46:00,
2013-11-18 11:47:00,50.0,49.5,29.23,East,96,0.0,0.0,98,0.12,,---,0.20,VWS V13.01,2013-11-18 19:47:00,
2013-11-18 11:48:00,50.0,49.5,29.23,East,96,0.0,0.0,98,0.12,,---,0.20,VWS V13.01,2013-11-18 19:48:00,
2013-11-18 11:50:00,50.0,49.5,29.23,East,96,0.0,0.0,98,0.12,,---,0.20,VWS V13.01,2013-11-18 19:50:00,
2013-11-18 11:51:00,50.2,49.6,29.23,East,96,0.0,0.0,98,0.12,,---,0.20,VWS V13.01,2013-11-18 19:51:00,
2013-11-18 11:52:00,50.2,49.6,29.23,East,96,0.0,0.0,98,0.12,,---,0.20,VWS V13.01,2013-11-18 19:52:00,
2013-11-18 11:53:00,50.2,49.6,29.23,East,96,0.0,0.0,98,0.12,,---,0.20,VWS V13.01,2013-11-18 19:53:00,
2013-11-18 11:55:00,50.2,49.6,29.23,East,96,0.0,0.0,98,0.12,,---,0.20,VWS V13.01,2013-11-18 19:55:00,
2013-11-18 11:56:00,50.2,49.6,29.23,East,96,0.0,0.0,98,0.12,,---,0.20,VWS V13.01,2013-11-18 19:56:00,
2013-11-18 11:58:00,50.2,49.6,29.23,East,96,0.0,0.0,98,0.12,,---,0.20,VWS V13.01,2013-11-18 19:58:00,
2013-11-18 12:00:00,50.2,49.6,29.23,East,96,0.0,0.0,98,0.12,,---,0.20,VWS V13.01,2013-11-18 20:00:00,
2013-11-18 12:01:00,50.2,49.6,29.23,East,96,0.0,0.0,98,0.12,,---,0.20,VWS V13.01,2013-11-18 20:01:00,
2013-11-18 12:02:00,50.2,49.6,29.23,East,96,0.0,0.0,98,0.12,,---,0.20,VWS V13.01,2013-11-18 20:02:00,
2013-11-18 12:03:00,50.4,49.8,29.23,East,96,0.0,0.0,98,0.12,,---,0.20,VWS V13.01,2013-11-18 20:03:00,
2013-11-18 12:05:00,50.4,49.8,29.23,East,96,0.0,0.0,98,0.12,,---,0.20,VWS V13.01,2013-11-18 20:05:00,
2013-11-18 12:06:00,50.4,49.8,29.23,East,96,0.0,0.0,98,0.12,,---,0.20,VWS V13.01,2013-11-18 20:06:00,
2013-11-18 12:07:00,50.4,49.8,29.23,East,96,0.0,0.0,98,0.12,,---,0.20,VWS V13.01,2013-11-18 20:07:00,
2013-11-18 12:08:00,50.4,49.8,29.23,East,96,0.0,0.0,98,0.12,,---,0.20,VWS V13.01,2013-11-18 20:08:00,
2013-11-18 12:09:00,50.4,49.8,29.23,East,96,0.0,0.0,98,0.12,,---,0.20,VWS V13.01,2013-11-18 20:09:00,
2013-11-18 12:10:00,50.4,49.8,29.23,East,96,0.0,0.0,98,0.12,,---,0.20,VWS V13.01,2013-11-18 20:10:00,
2013-11-18 12:11:00,50.4,49.8,29.23,East,96,0.0,0.0,98,0.08,,---,0.20,VWS V13.01,2013-11-18 20:11:00,
2013-11-18 12:12:00,50.4,49.8,29.23,East,96,0.0,0.0,98,0.08,,---,0.20,VWS V13.01,2013-11-18 20:12:00,
2013-11-18 12:14:00,50.4,49.8,29.23,East,96,0.0,0.0,98,0.08,,---,0.20,VWS V13.01,2013-11-18 20:14:00,
2013-11-18 12:15:00,50.4,49.8,29.23,East,96,0.0,0.0,98,0.08,,---,0.20,VWS V13.01,2013-11-18 20:15:00,
2013-11-18 12:17:00,50.4,49.8,29.23,East,96,0.0,0.0,98,0.08,,---,0.20,VWS V13.01,2013-11-18 20:17:00,
2013-11-18 12:18:00,50.4,49.8,29.23,East,96,0.0,0.0,98,0.08,,---,0.20,VWS V13.01,2013-11-18 20:18:00,
2013-11-18 12:19:00,50.5,50.0,29.23,East,96,0.0,0.0,98,0.08,,---,0.20,VWS V13.01,2013-11-18 20:19:00,
2013-11-18 12:20:00,50.5,50.0,29.23,East,96,0.0,0.0,98,0.08,,---,0.20,VWS V13.01,2013-11-18 20:20:00,
2013-11-18 12:22:00,50.5,50.0,29.23,East,96,0.0,0.0,98,0.08,,---,0.20,VWS V13.01,2013-11-18 20:22:00,
2013-11-18 12:23:00,50.5,50.0,29.23,East,96,0.0,0.0,98,0.08,,---,0.20,VWS V13.01,2013-11-18 20:23:00,
2013-11-18 12:24:00,50.5,50.0,29.23,SE,139,0.0,0.0,98,0.08,,---,0.20,VWS V13.01,2013-11-18 20:24:00,
2013-11-18 12:25:00,50.5,50.0,29.23,SE,139,0.0,0.0,98,0.08,,---,0.20,VWS V13.01,2013-11-18 20:25:00,
2013-11-18 12:27:00,50.5,50.0,29.23,SE,139,0.0,0.0,98,0.08,,---,0.20,VWS V13.01,2013-11-18 20:27:00,
2013-11-18 12:28:00,50.5,50.0,29.23,SE,139,0.0,0.0,98,0.08,,---,0.20,VWS V13.01,2013-11-18 20:28:00,
2013-11-18 12:29:00,50.5,50.0,29.23,SE,139,0.0,0.0,98,0.08,,---,0.20,VWS V13.01,2013-11-18 20:29:00,
2013-11-18 12:30:00,50.5,50.0,29.23,SE,139,0.0,0.0,98,0.08,,---,0.20,VWS V13.01,2013-11-18 20:30:00,
2013-11-18 12:32:00,50.5,50.0,29.23,SSW,213,0.0,0.0,98,0.08,,---,0.20,VWS V13.01,2013-11-18 20:32:00,
2013-11-18 12:33:00,50.5,50.0,29.23,SSW,213,0.0,0.0,98,0.08,,---,0.20,VWS V13.01,2013-11-18 20:33:00,
2013-11-18 12:34:00,50.5,50.0,29.23,SSW,213,0.0,0.0,98,0.08,,---,0.20,VWS V13.01,2013-11-18 20:34:00,
2013-11-18 12:35:00,50.5,50.0,29.23,SSW,213,0.0,0.0,98,0.08,,---,0.20,VWS V13.01,2013-11-18 20:35:00,
2013-11-18 12:37:00,50.5,50.0,29.23,WSW,247,0.0,0.0,98,0.08,,---,0.20,VWS V13.01,2013-11-18 20:37:00,
2013-11-18 12:38:00,50.5,50.0,29.23,WSW,247,0.0,0.0,98,0.08,,---,0.20,VWS V13.01,2013-11-18 20:38:00,
2013-11-18 12:40:00,50.7,50.2,29.23,WSW,247,0.0,0.0,98,0.00,,---,0.20,VWS V13.01,2013-11-18 20:40:00,
2013-11-18 12:42:00,50.7,50.2,29.23,SSE,150,0.0,0.0,98,0.00,,---,0.20,VWS V13.01,2013-11-18 20:42:00,
2013-11-18 12:43:00,50.7,50.2,29.23,SSE,150,0.0,0.0,98,0.00,,---,0.20,VWS V13.01,2013-11-18 20:43:00,
2013-11-18 12:45:00,50.7,50.2,29.23,SSW,207,0.0,0.0,98,0.00,,---,0.20,VWS V13.01,2013-11-18 20:45:00,
2013-11-18 12:46:00,50.7,50.2,29.23,SSW,207,0.0,0.0,98,0.00,,---,0.20,VWS V13.01,2013-11-18 20:46:00,
2013-11-18 12:47:00,50.7,50.2,29.21,SSW,207,0.0,0.0,98,0.00,,---,0.20,VWS V13.01,2013-11-18 20:47:00,
2013-11-18 12:49:00,50.7,50.2,29.21,South,174,0.0,0.0,98,0.04,,---,0.24,VWS V13.01,2013-11-18 20:49:00,
2013-11-18 12:50:00,50.7,50.2,29.21,South,174,0.0,0.0,98,0.04,,---,0.24,VWS V13.01,2013-11-18 20:50:00,
2013-11-18 12:51:00,50.7,50.2,29.21,South,174,0.0,0.0,98,0.04,,---,0.24,VWS V13.01,2013-11-18 20:51:00,
2013-11-18 12:52:00,50.7,50.2,29.21,ENE,76,0.0,0.0,98,0.04,,---,0.24,VWS V13.01,2013-11-18 20:52:00,
2013-11-18 12:53:00,50.7,50.2,29.21,ENE,76,0.0,0.0,98,0.04,,---,0.24,VWS V13.01,2013-11-18 20:53:00,
2013-11-18 12:54:00,50.7,50.2,29.21,ENE,76,0.0,0.0,98,0.04,,---,0.24,VWS V13.01,2013-11-18 20:54:00,
2013-11-18 12:55:00,50.7,50.2,29.21,WSW,257,0.0,0.0,98,0.04,,---,0.24,VWS V13.01,2013-11-18 20:55:00,
2013-11-18 12:56:00,50.7,50.2,29.21,WSW,257,0.0,0.0,98,0.04,,---,0.24,VWS V13.01,2013-11-18 20:56:00,
2013-11-18 12:57:00,50.9,50.4,29.21,WSW,240,0.0,0.0,98,0.04,,---,0.24,VWS V13.01,2013-11-18 20:57:00,
2013-11-18 12:58:00,50.9,50.4,29.21,East,96,2.2,2.2,98,0.04,,---,0.24,VWS V13.01,2013-11-18 20:58:00,
2013-11-18 12:59:00,50.9,50.4,29.21,East,96,2.2,2.2,98,0.04,,---,0.24,VWS V13.01,2013-11-18 20:59:00,
2013-11-18 13:01:00,50.9,50.4,29.21,East,96,2.2,2.2,98,0.04,,---,0.24,VWS V13.01,2013-11-18 21:01:00,
2013-11-18 13:02:00,50.9,50.4,29.21,East,97,2.2,2.2,98,0.04,,---,0.24,VWS V13.01,2013-11-18 21:02:00,
2013-11-18 13:03:00,50.9,50.4,29.21,East,97,2.2,2.2,98,0.04,,---,0.24,VWS V13.01,2013-11-18 21:03:00,
2013-11-18 13:04:00,50.9,50.4,29.21,East,97,2.2,2.2,98,0.04,,---,0.24,VWS V13.01,2013-11-18 21:04:00,
2013-11-18 13:06:00,50.9,50.4,29.21,SSE,161,7.6,7.6,98,0.04,,---,0.24,VWS V13.01,2013-11-18 21:06:00,
2013-11-18 13:07:00,50.9,50.4,29.21,South,189,4.9,4.9,98,0.04,,---,0.24,VWS V13.01,2013-11-18 21:07:00,
2013-11-18 13:08:00,50.9,50.4,29.21,SW,234,5.8,5.8,98,0.04,,---,0.24,VWS V13.01,2013-11-18 21:08:00,
2013-11-18 13:09:00,50.9,50.4,29.21,SW,234,5.8,5.8,98,0.04,,---,0.24,VWS V13.01,2013-11-18 21:09:00,
2013-11-18 13:11:00,50.9,50.4,29.21,SSE,167,0.0,5.8,98,0.04,,---,0.24,VWS V13.01,2013-11-18 21:11:00,
2013-11-18 13:13:00,50.9,50.4,29.21,North,349,0.0,0.0,98,0.04,,---,0.24,VWS V13.01,2013-11-18 21:13:00,
2013-11-18 13:14:00,50.9,50.4,29.21,North,349,0.0,0.0,98,0.04,,---,0.24,VWS V13.01,2013-11-18 21:14:00,
2013-11-18 13:16:00,50.9,50.4,29.21,SSE,156,3.6,3.6,98,0.04,,---,0.24,VWS V13.01,2013-11-18 21:16:00,
2013-11-18 13:18:00,50.9,50.4,29.21,SSW,204,0.0,3.6,98,0.04,,---,0.24,VWS V13.01,2013-11-18 21:18:00,
2013-11-18 13:19:00,50.9,50.4,29.21,SSW,204,0.0,0.0,98,0.04,,---,0.24,VWS V13.01,2013-11-18 21:19:00,
2013-11-18 13:20:00,50.9,50.4,29.21,SSW,207,0.0,0.0,98,0.04,,---,0.24,VWS V13.01,2013-11-18 21:20:00,
2013-11-18 13:21:00,50.9,50.4,29.21,SSW,207,0.0,0.0,98,0.04,,---,0.24,VWS V13.01,2013-11-18 21:21:00,
2013-11-18 13:23:00,50.9,50.4,29.21,WSW,250,0.0,0.0,98,0.04,,---,0.24,VWS V13.01,2013-11-18 21:23:00,
2013-11-18 13:24:00,50.9,50.4,29.21,NE,38,2.7,2.7,98,0.04,,---,0.24,VWS V13.01,2013-11-18 21:24:00,
2013-11-18 13:25:00,50.9,50.4,29.21,NE,38,2.7,2.7,98,0.04,,---,0.24,VWS V13.01,2013-11-18 21:25:00,
2013-11-18 13:26:00,50.9,50.4,29.21,NE,38,2.7,2.7,98,0.04,,---,0.24,VWS V13.01,2013-11-18 21:26:00,
2013-11-18 13:27:00,50.9,50.4,29.21,NE,38,2.7,2.7,98,0.04,,---,0.24,VWS V13.01,2013-11-18 21:27:00,
2013-11-18 13:28:00,50.9,50.4,29.21,NE,38,2.7,2.7,98,0.04,,---,0.24,VWS V13.01,2013-11-18 21:28:00,
2013-11-18 13:29:00,51.1,50.5,29.21,SE,134,0.0,3.6,98,0.04,,---,0.24,VWS V13.01,2013-11-18 21:29:00,
2013-11-18 13:30:00,51.1,50.5,29.21,SE,134,0.0,0.0,98,0.04,,---,0.24,VWS V13.01,2013-11-18 21:30:00,
2013-11-18 13:31:00,51.1,50.5,29.21,SE,134,0.0,0.0,98,0.04,,---,0.24,VWS V13.01,2013-11-18 21:31:00,
2013-11-18 13:32:00,51.1,50.5,29.21,SE,134,0.0,0.0,98,0.04,,---,0.24,VWS V13.01,2013-11-18 21:32:00,
2013-11-18 13:33:00,51.1,50.5,29.21,SE,134,0.0,0.0,98,0.04,,---,0.24,VWS V13.01,2013-11-18 21:33:00,
2013-11-18 13:34:00,51.1,50.5,29.21,SSE,165,0.0,0.0,98,0.04,,---,0.24,VWS V13.01,2013-11-18 21:34:00,
2013-11-18 13:36:00,51.1,50.5,29.21,SSE,165,0.0,0.0,98,0.04,,---,0.24,VWS V13.01,2013-11-18 21:36:00,
2013-11-18 13:37:00,51.1,50.5,29.21,South,185,5.4,5.4,98,0.04,,---,0.24,VWS V13.01,2013-11-18 21:37:00,
2013-11-18 13:38:00,51.1,50.5,29.21,South,185,5.4,5.4,98,0.04,,---,0.24,VWS V13.01,2013-11-18 21:38:00,
2013-11-18 13:39:00,51.1,50.3,29.21,ESE,117,0.0,5.4,97,0.04,,---,0.24,VWS V13.01,2013-11-18 21:39:00,
2013-11-18 13:41:00,51.1,50.3,29.21,SE,135,2.2,2.2,97,0.04,,---,0.24,VWS V13.01,2013-11-18 21:41:00,
2013-11-18 13:42:00,51.1,50.3,29.21,WSW,252,0.0,0.0,97,0.04,,---,0.24,VWS V13.01,2013-11-18 21:42:00,
2013-11-18 13:43:00,51.1,50.3,29.21,SW,218,4.0,4.0,97,0.04,,---,0.24,VWS V13.01,2013-11-18 21:43:00,
2013-11-18 13:45:00,51.1,50.3,29.21,SW,218,4.0,4.0,97,0.04,,---,0.24,VWS V13.01,2013-11-18 21:45:00,
2013-11-18 13:46:00,51.1,50.3,29.21,SW,218,4.0,4.0,97,0.04,,---,0.24,VWS V13.01,2013-11-18 21:46:00,
2013-11-18 13:47:00,51.1,50.3,29.21,SW,218,4.0,4.0,97,0.04,,---,0.24,VWS V13.01,2013-11-18 21:47:00,
2013-11-18 13:48:00,51.1,50.3,29.21,WSW,248,2.7,2.7,97,0.04,,---,0.24,VWS V13.01,2013-11-18 21:48:00,
2013-11-18 13:50:00,51.1,50.3,29.18,WSW,248,2.7,2.7,97,0.00,,---,0.24,VWS V13.01,2013-11-18 21:50:00,
2013-11-18 13:51:00,51.1,50.3,29.18,WSW,249,0.0,0.0,97,0.00,,---,0.24,VWS V13.01,2013-11-18 21:51:00,
2013-11-18 13:52:00,51.1,50.3,29.18,WSW,249,0.0,0.0,97,0.00,,---,0.24,VWS V13.01,2013-11-18 21:52:00,
2013-11-18 13:53:00,51.1,50.3,29.18,SW,236,0.0,0.0,97,0.00,,---,0.24,VWS V13.01,2013-11-18 21:53:00,
2013-11-18 13:54:00,51.1,50.3,29.18,WSW,242,2.7,2.7,97,0.00,,---,0.24,VWS V13.01,2013-11-18 21:54:00,
2013-11-18 13:55:00,51.1,50.3,29.18,WSW,257,0.0,2.7,97,0.04,,---,0.28,VWS V13.01,2013-11-18 21:55:00,
2013-11-18 13:56:00,50.9,50.1,29.18,WSW,257,0.0,0.0,97,0.04,,---,0.28,VWS V13.01,2013-11-18 21:56:00,
2013-11-18 13:57:00,50.9,50.1,29.18,WSW,257,0.0,0.0,97,0.04,,---,0.28,VWS V13.01,2013-11-18 21:57:00,
2013-11-18 13:58:00,50.9,50.1,29.18,WNW,286,5.4,5.4,97,0.04,,---,0.28,VWS V13.01,2013-11-18 21:58:00,
2013-11-18 13:59:00,50.9,50.1,29.18,WNW,286,5.4,5.4,97,0.04,,---,0.28,VWS V13.01,2013-11-18 21:59:00,
2013-11-18 14:00:00,50.9,50.1,29.18,WNW,286,5.4,5.4,97,0.04,,---,0.28,VWS V13.01,2013-11-18 22:00:00,
2013-11-18 14:01:00,50.9,50.1,29.18,SSE,152,3.6,5.4,97,0.04,,---,0.28,VWS V13.01,2013-11-18 22:01:00,
2013-11-18 14:02:00,50.9,50.1,29.18,SSE,152,3.6,3.6,97,0.04,,---,0.28,VWS V13.01,2013-11-18 22:02:00,
2013-11-18 14:04:00,50.9,50.1,29.18,SE,131,2.7,2.7,97,0.04,,---,0.28,VWS V13.01,2013-11-18 22:04:00,
2013-11-18 14:05:00,50.9,50.1,29.18,SE,131,0.0,0.0,97,0.04,,---,0.28,VWS V13.01,2013-11-18 22:05:00,
2013-11-18 14:06:00,50.9,50.1,29.18,SE,131,0.0,0.0,97,0.04,,---,0.28,VWS V13.01,2013-11-18 22:06:00,
2013-11-18 14:07:00,50.9,50.1,29.18,SE,131,0.0,0.0,97,0.04,,---,0.28,VWS V13.01,2013-11-18 22:07:00,
2013-11-18 14:09:00,50.9,50.1,29.18,SE,136,2.7,2.7,97,0.04,,---,0.28,VWS V13.01,2013-11-18 22:09:00,
2013-11-18 14:10:00,50.9,50.1,29.18,SE,136,2.7,2.7,97,0.04,,---,0.28,VWS V13.01,2013-11-18 22:10:00,
2013-11-18 14:12:00,50.9,50.1,29.18,East,81,0.0,2.7,97,0.04,,---,0.28,VWS V13.01,2013-11-18 22:12:00,
2013-11-18 14:13:00,50.9,50.1,29.18,SW,235,0.0,0.0,97,0.04,,---,0.28,VWS V13.01,2013-11-18 22:13:00,
2013-11-18 14:14:00,50.9,50.1,29.18,SW,235,0.0,0.0,97,0.04,,---,0.28,VWS V13.01,2013-11-18 22:14:00,
2013-11-18 14:15:00,50.9,50.1,29.18,South,173,3.1,3.1,97,0.04,,---,0.28,VWS V13.01,2013-11-18 22:15:00,
2013-11-18 14:17:00,50.9,50.1,29.18,South,173,3.1,3.1,97,0.04,,---,0.28,VWS V13.01,2013-11-18 22:17:00,
2013-11-18 14:18:00,50.9,50.1,29.18,South,173,0.0,3.1,97,0.04,,---,0.28,VWS V13.01,2013-11-18 22:18:00,
2013-11-18 14:19:00,50.9,50.1,29.18,NNE,32,0.0,0.0,97,0.04,,---,0.28,VWS V13.01,2013-11-18 22:19:00,
2013-11-18 14:20:00,50.9,50.1,29.18,NNE,32,0.0,0.0,97,0.04,,---,0.28,VWS V13.01,2013-11-18 22:20:00,
2013-11-18 14:21:00,50.9,50.1,29.18,NNE,32,0.0,0.0,97,0.04,,---,0.28,VWS V13.01,2013-11-18 22:21:00,
2013-11-18 14:22:00,50.9,50.1,29.18,West,261,3.6,3.6,97,0.04,,---,0.28,VWS V13.01,2013-11-18 22:22:00,
2013-11-18 14:23:00,50.9,50.1,29.18,NE,54,4.0,4.0,97,0.04,,---,0.28,VWS V13.01,2013-11-18 22:23:00,
2013-11-18 14:24:00,50.9,50.1,29.18,South,179,4.0,4.0,97,0.04,,---,0.28,VWS V13.01,2013-11-18 22:24:00,
2013-11-18 14:25:00,50.9,50.1,29.18,West,271,5.4,5.4,97,0.04,,---,0.28,VWS V13.01,2013-11-18 22:25:00,
2013-11-18 14:26:00,50.9,50.1,29.18,South,181,3.1,3.1,97,0.04,,---,0.28,VWS V13.01,2013-11-18 22:26:00,
2013-11-18 14:27:00,50.9,50.1,29.18,South,181,3.1,3.1,97,0.04,,---,0.28,VWS V13.01,2013-11-18 22:27:00,
2013-11-18 14:28:00,50.9,50.1,29.18,South,181,3.1,3.1,97,0.04,,---,0.28,VWS V13.01,2013-11-18 22:28:00,
2013-11-18 14:30:00,50.9,50.1,29.18,South,169,2.7,3.1,97,0.04,,---,0.28,VWS V13.01,2013-11-18 22:30:00,
2013-11-18 14:31:00,50.9,50.1,29.18,WSW,256,4.0,4.0,97,0.04,,---,0.28,VWS V13.01,2013-11-18 22:31:00,
2013-11-18 14:32:00,50.9,50.1,29.18,ESE,118,3.6,4.0,97,0.04,,---,0.28,VWS V13.01,2013-11-18 22:32:00,
2013-11-18 14:33:00,50.9,50.1,29.18,ESE,118,3.6,4.0,97,0.04,,---,0.28,VWS V13.01,2013-11-18 22:33:00,
2013-11-18 14:34:00,50.9,50.1,29.18,ESE,118,3.6,3.6,97,0.04,,---,0.28,VWS V13.01,2013-11-18 22:34:00,
2013-11-18 14:35:00,50.9,50.1,29.18,SW,225,0.0,0.0,97,0.04,,---,0.28,VWS V13.01,2013-11-18 22:35:00,
2013-11-18 14:36:00,50.9,50.1,29.18,SW,225,0.0,0.0,97,0.04,,---,0.28,VWS V13.01,2013-11-18 22:36:00,
2013-11-18 14:38:00,50.9,50.1,29.18,SW,225,0.0,0.0,97,0.04,,---,0.28,VWS V13.01,2013-11-18 22:38:00,
2013-11-18 14:39:00,50.9,50.1,29.18,WSW,252,2.2,2.2,97,0.04,,---,0.28,VWS V13.01,2013-11-18 22:39:00,
2013-11-18 14:40:00,50.9,50.1,29.18,WSW,252,2.2,2.2,97,0.04,,---,0.28,VWS V13.01,2013-11-18 22:40:00,
2013-11-18 14:41:00,50.9,50.1,29.18,WSW,252,2.2,2.2,97,0.04,,---,0.28,VWS V13.01,2013-11-18 22:41:00,
2013-11-18 14:42:00,50.9,50.1,29.18,WSW,252,2.2,2.2,97,0.04,,---,0.28,VWS V13.01,2013-11-18 22:42:00,
2013-11-18 14:43:00,50.7,49.9,29.18,WSW,252,2.2,2.2,97,0.04,,---,0.28,VWS V13.01,2013-11-18 22:43:00,
2013-11-18 14:44:00,50.7,49.9,29.18,SE,133,0.0,0.0,97,0.04,,---,0.28,VWS V13.01,2013-11-18 22:44:00,
2013-11-18 14:45:00,50.7,49.9,29.18,SE,133,0.0,0.0,97,0.04,,---,0.28,VWS V13.01,2013-11-18 22:45:00,
2013-11-18 14:46:00,50.7,49.9,29.18,SSE,157,0.0,6.3,97,0.04,,---,0.28,VWS V13.01,2013-11-18 22:46:00,
2013-11-18 14:47:00,50.7,49.9,29.18,SSE,157,0.0,6.3,97,0.04,,---,0.28,VWS V13.01,2013-11-18 22:47:00,
2013-11-18 14:48:00,50.7,49.9,29.18,West,278,0.0,0.0,97,0.04,,---,0.28,VWS V13.01,2013-11-18 22:48:00,
2013-11-18 14:50:00,50.7,49.9,29.18,West,278,0.0,0.0,97,0.04,,---,0.28,VWS V13.01,2013-11-18 22:50:00,
2013-11-18 14:51:00,50.7,49.9,29.18,SSW,210,0.0,0.0,97,0.04,,---,0.28,VWS V13.01,2013-11-18 22:51:00,
2013-11-18 14:52:00,50.7,49.9,29.18,SSW,210,0.0,0.0,97,0.04,,---,0.28,VWS V13.01,2013-11-18 22:52:00,
2013-11-18 14:53:00,50.7,49.9,29.18,South,171,0.0,0.0,97,0.04,,---,0.28,VWS V13.01,2013-11-18 22:53:00,
2013-11-18 14:55:00,50.7,49.9,29.18,South,171,0.0,0.0,97,0.04,,---,0.28,VWS V13.01,2013-11-18 22:55:00,
2013-11-18 14:56:00,50.5,49.7,29.18,SSE,148,0.0,0.0,97,0.00,,---,0.28,VWS V13.01,2013-11-18 22:56:00,
2013-11-18 14:57:00,50.5,49.7,29.18,WNW,294,0.0,0.0,97,0.00,,---,0.28,VWS V13.01,2013-11-18 22:57:00,
2013-11-18 14:58:00,50.5,49.7,29.18,WNW,294,0.0,0.0,97,0.00,,---,0.28,VWS V13.01,2013-11-18 22:58:00,
2013-11-18 15:01:00,50.5,49.7,29.18,SSW,213,0.0,4.0,97,0.00,,---,0.31,VWS V13.01,2013-11-18 23:01:00,
2013-11-18 15:02:00,50.5,49.7,29.18,SW,226,2.7,2.7,97,0.04,,---,0.31,VWS V13.01,2013-11-18 23:02:00,
2013-11-18 15:03:00,50.5,49.7,29.15,SW,226,2.7,2.7,97,0.04,,---,0.31,VWS V13.01,2013-11-18 23:03:00,
2013-11-18 15:04:00,50.5,49.7,29.15,SW,226,2.7,2.7,97,0.04,,---,0.31,VWS V13.01,2013-11-18 23:04:00,
2013-11-18 15:06:00,50.5,49.7,29.15,East,93,0.0,0.0,97,0.04,,---,0.31,VWS V13.01,2013-11-18 23:06:00,
2013-11-18 15:08:00,50.5,49.7,29.15,ESE,110,0.0,0.0,97,0.04,,---,0.31,VWS V13.01,2013-11-18 23:08:00,
2013-11-18 15:09:00,50.5,49.7,29.15,ESE,110,0.0,0.0,97,0.04,,---,0.31,VWS V13.01,2013-11-18 23:09:00,
2013-11-18 15:11:00,50.5,49.7,29.15,West,260,0.0,4.0,97,0.04,,---,0.31,VWS V13.01,2013-11-18 23:11:00,
2013-11-18 15:13:00,50.5,49.7,29.15,West,260,0.0,0.0,97,0.04,,---,0.31,VWS V13.01,2013-11-18 23:13:00,
2013-11-18 15:14:00,50.5,49.7,29.15,West,260,0.0,0.0,97,0.04,,---,0.31,VWS V13.01,2013-11-18 23:14:00,
2013-11-18 15:16:00,50.5,49.7,29.15,SE,139,0.0,0.0,97,0.04,,---,0.31,VWS V13.01,2013-11-18 23:16:00,
2013-11-18 15:17:00,50.5,49.7,29.15,SE,139,0.0,0.0,97,0.04,,---,0.31,VWS V13.01,2013-11-18 23:17:00,
2013-11-18 15:18:00,50.4,49.5,29.15,ENE,58,0.0,0.0,97,0.04,,---,0.31,VWS V13.01,2013-11-18 23:18:00,
2013-11-18 15:19:00,50.4,49.5,29.15,ENE,58,0.0,0.0,97,0.04,,---,0.31,VWS V13.01,2013-11-18 23:19:00,
2013-11-18 15:21:00,50.4,49.5,29.15,SSE,163,0.0,0.0,97,0.04,,---,0.31,VWS V13.01,2013-11-18 23:21:00,
2013-11-18 15:22:00,50.4,49.5,29.15,SSE,163,0.0,0.0,97,0.04,,---,0.31,VWS V13.01,2013-11-18 23:22:00,
2013-11-18 15:23:00,50.4,49.5,29.15,SSE,163,0.0,0.0,97,0.04,,---,0.31,VWS V13.01,2013-11-18 23:23:00,
2013-11-18 15:24:00,50.4,49.5,29.15,South,169,0.0,0.0,97,0.04,,---,0.31,VWS V13.01,2013-11-18 23:24:00,
2013-11-18 15:26:00,50.4,49.5,29.15,SSW,204,0.0,0.0,97,0.04,,---,0.31,VWS V13.01,2013-11-18 23:26:00,
2013-11-18 15:28:00,50.4,49.5,29.15,ENE,59,0.0,0.0,97,0.04,,---,0.31,VWS V13.01,2013-11-18 23:28:00,
2013-11-18 15:29:00,50.2,49.4,29.15,East,100,0.0,2.7,97,0.04,,---,0.31,VWS V13.01,2013-11-18 23:29:00,
2013-11-18 15:32:00,50.2,49.4,29.15,SE,133,0.0,0.0,97,0.04,,---,0.31,VWS V13.01,2013-11-18 23:32:00,
2013-11-18 15:33:00,50.2,49.4,29.15,WNW,286,0.0,0.0,97,0.04,,---,0.31,VWS V13.01,2013-11-18 23:33:00,
2013-11-18 15:34:00,50.2,49.4,29.15,WNW,286,0.0,0.0,97,0.04,,---,0.31,VWS V13.01,2013-11-18 23:34:00,
2013-11-18 15:37:00,50.2,49.4,29.15,SSE,165,0.0,0.0,97,0.04,,---,0.31,VWS V13.01,2013-11-18 23:37:00,
2013-11-18 15:38:00,50.2,49.4,29.15,ENE,59,0.0,0.0,97,0.04,,---,0.31,VWS V13.01,2013-11-18 23:38:00,
2013-11-18 15:39:00,50.2,49.4,29.15,ENE,74,0.0,0.0,97,0.04,,---,0.31,VWS V13.01,2013-11-18 23:39:00,
2013-11-18 15:42:00,50.0,49.2,29.15,ENE,74,0.0,0.0,97,0.04,,---,0.31,VWS V13.01,2013-11-18 23:42:00,
2013-11-18 15:43:00,50.0,49.2,29.15,ENE,74,0.0,0.0,97,0.04,,---,0.31,VWS V13.01,2013-11-18 23:43:00,
2013-11-18 15:44:00,50.0,49.2,29.15,ENE,74,0.0,0.0,97,0.04,,---,0.31,VWS V13.01,2013-11-18 23:44:00,
2013-11-18 15:45:00,50.0,49.2,29.15,ENE,74,0.0,0.0,97,0.04,,---,0.31,VWS V13.01,2013-11-18 23:45:00,
2013-11-18 15:47:00,50.0,49.2,29.15,SE,126,0.0,0.0,97,0.04,,---,0.31,VWS V13.01,2013-11-18 23:47:00,
2013-11-18 15:49:00,50.0,49.2,29.15,SE,126,0.0,0.0,97,0.04,,---,0.31,VWS V13.01,2013-11-18 23:49:00,
2013-11-18 15:50:00,50.0,49.2,29.15,SE,126,0.0,0.0,97,0.04,,---,0.31,VWS V13.01,2013-11-18 23:50:00,
2013-11-18 15:52:00,49.8,49.0,29.15,ESE,106,0.0,0.0,97,0.04,,---,0.31,VWS V13.01,2013-11-18 23:52:00,
2013-11-18 15:54:00,49.8,49.0,29.15,ESE,106,0.0,0.0,97,0.04,,---,0.31,VWS V13.01,2013-11-18 23:54:00,
2013-11-18 15:55:00,49.8,49.0,29.15,ESE,106,0.0,0.0,97,0.04,,---,0.31,VWS V13.01,2013-11-18 23:55:00,
2013-11-18 15:57:00,49.8,49.0,29.15,ESE,106,0.0,0.0,97,0.04,,---,0.31,VWS V13.01,2013-11-18 23:57:00,
2013-11-18 15:59:00,49.8,49.0,29.15,ESE,106,0.0,0.0,97,0.04,,---,0.31,VWS V13.01,2013-11-18 23:59:00,
2013-11-18 16:00:00,49.8,49.0,29.15,WSW,241,2.2,2.2,97,0.04,,---,0.31,VWS V13.01,2013-11-19 00:00:00,
2013-11-18 16:01:00,49.8,49.0,29.15,WSW,241,0.0,0.0,97,0.04,,---,0.31,VWS V13.01,2013-11-19 00:01:00,
2013-11-18 16:02:00,49.8,49.0,29.15,SSW,213,0.0,0.0,97,0.00,,---,0.31,VWS V13.01,2013-11-19 00:02:00,
2013-11-18 16:04:00,49.8,49.0,29.12,SW,224,0.0,0.0,97,0.00,,---,0.31,VWS V13.01,2013-11-19 00:04:00,
2013-11-18 16:05:00,49.8,49.0,29.12,SW,224,0.0,0.0,97,0.00,,---,0.31,VWS V13.01,2013-11-19 00:05:00,
2013-11-18 16:06:00,49.8,49.0,29.12,SW,224,0.0,0.0,97,0.00,,---,0.35,VWS V13.01,2013-11-19 00:06:00,
2013-11-18 16:07:00,49.8,49.0,29.12,SW,224,0.0,0.0,97,0.04,,---,0.35,VWS V13.01,2013-11-19 00:07:00,
2013-11-18 16:09:00,49.8,49.0,29.12,SW,224,0.0,0.0,97,0.04,,---,0.35,VWS V13.01,2013-11-19 00:09:00,
2013-11-18 16:10:00,49.8,49.0,29.12,SW,224,0.0,0.0,97,0.04,,---,0.35,VWS V13.01,2013-11-19 00:10:00,
2013-11-18 16:11:00,49.8,49.0,29.12,SW,224,0.0,0.0,97,0.04,,---,0.35,VWS V13.01,2013-11-19 00:11:00,
2013-11-18 16:12:00,49.8,49.0,29.12,SW,224,0.0,0.0,97,0.04,,---,0.35,VWS V13.01,2013-11-19 00:12:00,
2013-11-18 16:14:00,49.8,49.0,29.12,SW,224,0.0,0.0,97,0.04,,---,0.35,VWS V13.01,2013-11-19 00:14:00,
2013-11-18 16:15:00,49.8,49.0,29.12,SW,224,0.0,0.0,97,0.04,,---,0.35,VWS V13.01,2013-11-19 00:15:00,
2013-11-18 16:16:00,49.8,49.0,29.12,SW,224,0.0,0.0,97,0.04,,---,0.35,VWS V13.01,2013-11-19 00:16:00,
2013-11-18 16:17:00,49.8,49.0,29.12,SW,224,0.0,0.0,97,0.04,,---,0.35,VWS V13.01,2013-11-19 00:17:00,
2013-11-18 16:18:00,49.6,48.8,29.12,SW,224,0.0,0.0,97,0.04,,---,0.35,VWS V13.01,2013-11-19 00:18:00,
2013-11-18 16:20:00,49.6,48.8,29.12,SW,224,0.0,0.0,97,0.04,,---,0.35,VWS V13.01,2013-11-19 00:20:00,
2013-11-18 16:21:00,49.6,48.8,29.12,SSW,209,0.0,0.0,97,0.04,,---,0.35,VWS V13.01,2013-11-19 00:21:00,
2013-11-18 16:22:00,49.6,48.8,29.12,SSW,209,0.0,0.0,97,0.04,,---,0.35,VWS V13.01,2013-11-19 00:22:00,
2013-11-18 16:23:00,49.6,48.8,29.12,SSW,209,0.0,0.0,97,0.04,,---,0.35,VWS V13.01,2013-11-19 00:23:00,
2013-11-18 16:25:00,49.6,48.8,29.12,NE,54,2.7,2.7,97,0.04,,---,0.35,VWS V13.01,2013-11-19 00:25:00,
2013-11-18 16:27:00,49.6,48.8,29.12,NE,54,2.7,2.7,97,0.04,,---,0.35,VWS V13.01,2013-11-19 00:27:00,
2013-11-18 16:28:00,49.6,48.8,29.12,NE,54,0.0,2.7,97,0.04,,---,0.35,VWS V13.01,2013-11-19 00:28:00,
2013-11-18 16:30:00,49.6,48.8,29.12,NE,54,0.0,0.0,97,0.04,,---,0.35,VWS V13.01,2013-11-19 00:30:00,
2013-11-18 16:32:00,49.6,48.8,29.12,NE,54,0.0,0.0,97,0.04,,---,0.35,VWS V13.01,2013-11-19 00:32:00,
2013-11-18 16:35:00,49.6,48.8,29.12,NE,54,0.0,0.0,97,0.04,,---,0.35,VWS V13.01,2013-11-19 00:35:00,
2013-11-18 16:37:00,49.6,48.8,29.12,NE,54,0.0,0.0,97,0.04,,---,0.35,VWS V13.01,2013-11-19 00:37:00,
2013-11-18 16:38:00,49.6,48.8,29.12,NE,54,0.0,0.0,97,0.04,,---,0.35,VWS V13.01,2013-11-19 00:38:00,
2013-11-18 16:40:00,49.6,48.8,29.12,NE,54,0.0,0.0,97,0.04,,---,0.35,VWS V13.01,2013-11-19 00:40:00,
2013-11-18 16:42:00,49.5,48.7,29.12,SW,217,0.0,0.0,97,0.04,,---,0.35,VWS V13.01,2013-11-19 00:42:00,
2013-11-18 16:43:00,49.5,48.7,29.12,SW,217,0.0,0.0,97,0.04,,---,0.35,VWS V13.01,2013-11-19 00:43:00,
2013-11-18 16:45:00,49.5,48.7,29.12,SSE,148,0.0,0.0,97,0.04,,---,0.35,VWS V13.01,2013-11-19 00:45:00,
2013-11-18 16:46:00,49.5,48.7,29.12,SSE,148,0.0,0.0,97,0.04,,---,0.35,VWS V13.01,2013-11-19 00:46:00,
2013-11-18 16:47:00,49.5,48.7,29.12,SSE,148,0.0,0.0,97,0.04,,---,0.35,VWS V13.01,2013-11-19 00:47:00,
2013-11-18 16:48:00,49.5,48.7,29.12,ENE,60,0.0,0.0,97,0.04,,---,0.35,VWS V13.01,2013-11-19 00:48:00,
2013-11-18 16:50:00,49.5,48.7,29.09,East,93,0.0,0.0,97,0.04,,---,0.35,VWS V13.01,2013-11-19 00:50:00,
2013-11-18 16:51:00,49.5,48.7,29.09,East,93,0.0,0.0,97,0.04,,---,0.35,VWS V13.01,2013-11-19 00:51:00,
2013-11-18 16:52:00,49.5,48.7,29.09,East,93,0.0,0.0,97,0.04,,---,0.35,VWS V13.01,2013-11-19 00:52:00,
2013-11-18 16:53:00,49.5,48.7,29.09,East,93,0.0,0.0,97,0.04,,---,0.35,VWS V13.01,2013-11-19 00:53:00,
2013-11-18 16:55:00,49.5,48.7,29.09,SSW,196,0.0,0.0,97,0.04,,---,0.35,VWS V13.01,2013-11-19 00:55:00,
2013-11-18 16:56:00,49.5,48.7,29.09,SSW,196,0.0,0.0,97,0.04,,---,0.35,VWS V13.01,2013-11-19 00:56:00,
2013-11-18 16:57:00,49.5,48.7,29.09,SE,126,0.0,0.0,97,0.04,,---,0.35,VWS V13.01,2013-11-19 00:57:00,
2013-11-18 16:58:00,49.5,48.7,29.09,SE,126,0.0,0.0,97,0.04,,---,0.35,VWS V13.01,2013-11-19 00:58:00,
2013-11-18 17:01:00,49.6,49.1,29.09,NE,43,0.0,0.0,98,0.04,,---,0.35,VWS V13.01,2013-11-19 01:01:00,
2013-11-18 17:02:00,49.6,49.1,29.09,NE,43,0.0,0.0,98,0.04,,---,0.35,VWS V13.01,2013-11-19 01:02:00,
2013-11-18 17:04:00,49.5,48.9,29.09,NE,43,0.0,0.0,98,0.04,,---,0.35,VWS V13.01,2013-11-19 01:04:00,
2013-11-18 17:06:00,49.5,48.9,29.09,West,266,0.0,0.0,98,0.04,,---,0.35,VWS V13.01,2013-11-19 01:06:00,
2013-11-18 17:07:00,49.5,48.9,29.09,WSW,245,0.0,0.0,98,0.04,,---,0.35,VWS V13.01,2013-11-19 01:07:00,
2013-11-18 17:09:00,49.5,48.9,29.09,East,89,0.0,0.0,98,0.00,,---,0.35,VWS V13.01,2013-11-19 01:09:00,
2013-11-18 17:11:00,49.5,48.9,29.09,South,169,2.7,2.7,98,0.00,,---,0.35,VWS V13.01,2013-11-19 01:11:00,
2013-11-18 17:12:00,49.5,48.9,29.09,South,169,2.7,2.7,98,0.00,,---,0.35,VWS V13.01,2013-11-19 01:12:00,
2013-11-18 17:14:00,49.6,49.1,29.09,NNE,29,4.0,4.0,98,0.00,,---,0.35,VWS V13.01,2013-11-19 01:14:00,
2013-11-18 17:16:00,49.6,49.1,29.09,NNE,29,4.0,4.0,98,0.00,,---,0.35,VWS V13.01,2013-11-19 01:16:00,
2013-11-18 17:17:00,49.6,49.1,29.09,SSW,210,0.0,3.1,98,0.00,,---,0.35,VWS V13.01,2013-11-19 01:17:00,
2013-11-18 17:19:00,49.6,49.1,29.09,SSW,210,0.0,0.0,98,0.00,,---,0.35,VWS V13.01,2013-11-19 01:19:00,
2013-11-18 17:21:00,49.6,48.8,29.09,NE,40,0.0,0.0,97,0.00,,---,0.35,VWS V13.01,2013-11-19 01:21:00,
2013-11-18 17:22:00,49.6,48.8,29.09,NE,40,0.0,0.0,97,0.00,,---,0.35,VWS V13.01,2013-11-19 01:22:00,
2013-11-18 17:23:00,49.6,48.8,29.09,NE,40,0.0,0.0,97,0.00,,---,0.35,VWS V13.01,2013-11-19 01:23:00,
2013-11-18 17:24:00,49.6,48.8,29.09,NNE,18,0.0,5.8,97,0.00,,---,0.35,VWS V13.01,2013-11-19 01:24:00,
2013-11-18 17:26:00,49.6,48.8,29.09,NNE,18,0.0,0.0,97,0.00,,---,0.35,VWS V13.01,2013-11-19 01:26:00,
2013-11-18 17:27:00,49.8,49.0,29.09,NNE,18,0.0,0.0,97,0.00,,---,0.35,VWS V13.01,2013-11-19 01:27:00,
2013-11-18 17:28:00,49.8,49.0,29.09,SSE,159,4.0,4.0,97,0.00,,---,0.35,VWS V13.01,2013-11-19 01:28:00,
2013-11-18 17:30:00,49.8,49.0,29.09,SE,141,6.3,6.3,97,0.00,,---,0.35,VWS V13.01,2013-11-19 01:30:00,
2013-11-18 17:31:00,50.0,49.2,29.09,SE,133,2.7,6.3,97,0.00,,---,0.35,VWS V13.01,2013-11-19 01:31:00,
2013-11-18 17:32:00,50.0,49.2,29.09,SE,133,2.7,2.7,97,0.00,,---,0.35,VWS V13.01,2013-11-19 01:32:00,
2013-11-18 17:33:00,50.0,49.2,29.09,SE,133,2.7,2.7,97,0.00,,---,0.35,VWS V13.01,2013-11-19 01:33:00,
2013-11-18 17:35:00,50.0,49.2,29.09,West,275,3.1,3.1,97,0.00,,---,0.35,VWS V13.01,2013-11-19 01:35:00,
2013-11-18 17:37:00,50.0,49.2,29.09,SE,124,0.0,3.1,97,0.00,,---,0.35,VWS V13.01,2013-11-19 01:37:00,
2013-11-18 17:38:00,50.0,49.2,29.09,SE,124,0.0,0.0,97,0.00,,---,0.35,VWS V13.01,2013-11-19 01:38:00,
2013-11-18 17:40:00,50.0,49.2,29.09,SE,144,2.7,2.7,97,0.00,,---,0.35,VWS V13.01,2013-11-19 01:40:00,
2013-11-18 17:41:00,50.0,49.2,29.09,NW,314,0.0,0.0,97,0.00,,---,0.35,VWS V13.01,2013-11-19 01:41:00,
2013-11-18 17:42:00,50.0,49.2,29.09,NW,314,0.0,0.0,97,0.00,,---,0.35,VWS V13.01,2013-11-19 01:42:00,
2013-11-18 17:43:00,49.8,49.0,29.09,North,353,0.0,0.0,97,0.00,,---,0.35,VWS V13.01,2013-11-19 01:43:00,
2013-11-18 17:44:00,49.8,49.0,29.09,North,353,0.0,0.0,97,0.00,,---,0.35,VWS V13.01,2013-11-19 01:44:00,
2013-11-18 17:45:00,49.8,49.0,29.09,North,353,0.0,0.0,97,0.00,,---,0.35,VWS V13.01,2013-11-19 01:45:00,
2013-11-18 17:47:00,49.8,49.0,29.09,SSW,192,0.0,0.0,97,0.00,,---,0.35,VWS V13.01,2013-11-19 01:47:00,
2013-11-18 17:48:00,49.8,49.0,29.09,South,172,4.0,4.0,97,0.00,,---,0.35,VWS V13.01,2013-11-19 01:48:00,
2013-11-18 17:49:00,49.8,49.0,29.09,South,172,4.0,4.0,97,0.00,,---,0.35,VWS V13.01,2013-11-19 01:49:00,
2013-11-18 17:50:00,49.8,49.0,29.09,South,173,0.0,0.0,97,0.00,,---,0.35,VWS V13.01,2013-11-19 01:50:00,
2013-11-18 17:52:00,49.8,49.0,29.09,SE,144,2.7,2.7,97,0.00,,---,0.35,VWS V13.01,2013-11-19 01:52:00,
2013-11-18 17:53:00,49.8,49.0,29.09,SE,144,2.7,2.7,97,0.00,,---,0.35,VWS V13.01,2013-11-19 01:53:00,
2013-11-18 17:54:00,49.8,49.0,29.09,SE,144,2.7,2.7,97,0.00,,---,0.35,VWS V13.01,2013-11-19 01:54:00,
2013-11-18 17:55:00,50.0,49.2,29.09,ENE,61,0.0,0.0,97,0.00,,---,0.35,VWS V13.01,2013-11-19 01:55:00,
2013-11-18 17:57:00,49.8,49.0,29.09,ENE,61,0.0,0.0,97,0.00,,---,0.35,VWS V13.01,2013-11-19 01:57:00,
2013-11-18 17:58:00,49.8,49.0,29.09,ENE,61,0.0,0.0,97,0.00,,---,0.35,VWS V13.01,2013-11-19 01:58:00,
2013-11-18 17:59:00,49.8,49.0,29.09,ENE,61,0.0,0.0,97,0.00,,---,0.35,VWS V13.01,2013-11-19 01:59:00,
2013-11-18 18:01:00,49.8,49.0,29.09,SSE,152,0.0,0.0,97,0.00,,---,0.35,VWS V13.01,2013-11-19 02:01:00,
2013-11-18 18:02:00,49.8,49.0,29.09,SSW,200,2.7,2.7,97,0.00,,---,0.35,VWS V13.01,2013-11-19 02:02:00,
2013-11-18 18:03:00,49.8,49.0,29.09,SW,226,5.8,5.8,97,0.00,,---,0.35,VWS V13.01,2013-11-19 02:03:00,
2013-11-18 18:04:00,49.8,49.0,29.09,SW,226,5.8,5.8,97,0.00,,---,0.35,VWS V13.01,2013-11-19 02:04:00,
2013-11-18 18:06:00,49.8,49.0,29.09,SW,226,5.8,5.8,97,0.00,,---,0.35,VWS V13.01,2013-11-19 02:06:00,
2013-11-18 18:07:00,50.0,48.9,29.09,SSW,198,0.0,4.9,96,0.00,,---,0.35,VWS V13.01,2013-11-19 02:07:00,
2013-11-18 18:08:00,50.0,48.9,29.09,SSW,198,0.0,0.0,96,0.00,,---,0.39,VWS V13.01,2013-11-19 02:08:00,
2013-11-18 18:09:00,50.0,48.9,29.09,SSW,198,0.0,0.0,96,0.04,,---,0.39,VWS V13.01,2013-11-19 02:09:00,
2013-11-18 18:10:00,50.0,48.9,29.09,SSW,198,0.0,0.0,96,0.04,,---,0.39,VWS V13.01,2013-11-19 02:10:00,
2013-11-18 18:11:00,50.0,48.9,29.09,SSW,198,0.0,0.0,96,0.04,,---,0.39,VWS V13.01,2013-11-19 02:11:00,
2013-11-18 18:13:00,49.8,49.0,29.09,SE,141,0.0,0.0,97,0.04,,---,0.39,VWS V13.01,2013-11-19 02:13:00,
2013-11-18 18:15:00,49.6,48.8,29.09,SE,141,0.0,0.0,97,0.04,,---,0.39,VWS V13.01,2013-11-19 02:15:00,
2013-11-18 18:16:00,49.6,48.8,29.09,SE,141,0.0,0.0,97,0.04,,---,0.39,VWS V13.01,2013-11-19 02:16:00,
2013-11-18 18:18:00,49.6,48.8,29.09,SE,141,0.0,0.0,97,0.04,,---,0.39,VWS V13.01,2013-11-19 02:18:00,
2013-11-18 18:20:00,49.6,48.8,29.06,SE,141,0.0,0.0,97,0.04,,---,0.39,VWS V13.01,2013-11-19 02:20:00,
2013-11-18 18:21:00,49.6,48.8,29.06,ESE,104,0.0,0.0,97,0.04,,---,0.39,VWS V13.01,2013-11-19 02:21:00,
2013-11-18 18:23:00,49.6,48.8,29.06,East,101,0.0,0.0,97,0.04,,---,0.39,VWS V13.01,2013-11-19 02:23:00,
2013-11-18 18:25:00,49.6,48.8,29.06,SSE,148,2.7,2.7,97,0.04,,---,0.39,VWS V13.01,2013-11-19 02:25:00,
2013-11-18 18:26:00,49.6,48.8,29.06,SSE,148,2.7,2.7,97,0.04,,---,0.39,VWS V13.01,2013-11-19 02:26:00,
2013-11-18 18:28:00,49.6,48.8,29.06,ENE,58,0.0,2.7,97,0.04,,---,0.39,VWS V13.01,2013-11-19 02:28:00,
2013-11-18 18:29:00,49.6,48.8,29.06,ENE,58,0.0,0.0,97,0.04,,---,0.39,VWS V13.01,2013-11-19 02:29:00,
2013-11-18 18:30:00,49.5,48.7,29.06,NNE,30,0.0,0.0,97,0.04,,---,0.39,VWS V13.01,2013-11-19 02:30:00,
2013-11-18 18:31:00,49.5,48.7,29.06,NNE,30,0.0,0.0,97,0.04,,---,0.39,VWS V13.01,2013-11-19 02:31:00,
2013-11-18 18:32:00,49.5,48.7,29.06,NNE,30,0.0,0.0,97,0.04,,---,0.39,VWS V13.01,2013-11-19 02:32:00,
2013-11-18 18:33:00,49.5,48.7,29.06,NNE,30,0.0,0.0,97,0.04,,---,0.39,VWS V13.01,2013-11-19 02:33:00,
2013-11-18 18:34:00,49.6,48.8,29.06,NE,54,0.0,0.0,97,0.04,,---,0.39,VWS V13.01,2013-11-19 02:34:00,
2013-11-18 18:35:00,49.6,48.8,29.06,South,189,0.0,0.0,97,0.04,,---,0.39,VWS V13.01,2013-11-19 02:35:00,
2013-11-18 18:36:00,49.6,48.8,29.06,South,189,0.0,0.0,97,0.04,,---,0.39,VWS V13.01,2013-11-19 02:36:00,
2013-11-18 18:37:00,49.6,48.8,29.06,SSE,167,0.0,0.0,97,0.04,,---,0.39,VWS V13.01,2013-11-19 02:37:00,
2013-11-18 18:38:00,49.6,48.8,29.06,SSE,167,0.0,0.0,97,0.04,,---,0.39,VWS V13.01,2013-11-19 02:38:00,
2013-11-18 18:39:00,49.6,48.8,29.06,SSE,167,0.0,0.0,97,0.04,,---,0.39,VWS V13.01,2013-11-19 02:39:00,
2013-11-18 18:41:00,49.6,48.8,29.06,SSE,167,0.0,0.0,97,0.04,,---,0.39,VWS V13.01,2013-11-19 02:41:00,
2013-11-18 18:42:00,49.6,48.8,29.06,ENE,75,0.0,0.0,97,0.04,,---,0.39,VWS V13.01,2013-11-19 02:42:00,
2013-11-18 18:43:00,49.6,48.8,29.06,ENE,75,0.0,0.0,97,0.04,,---,0.39,VWS V13.01,2013-11-19 02:43:00,
2013-11-18 18:44:00,49.6,48.8,29.06,SSE,151,0.0,0.0,97,0.04,,---,0.39,VWS V13.01,2013-11-19 02:44:00,
2013-11-18 18:46:00,49.6,48.8,29.06,SSE,151,0.0,0.0,97,0.04,,---,0.39,VWS V13.01,2013-11-19 02:46:00,
2013-11-18 18:47:00,49.6,48.8,29.06,SE,141,0.0,0.0,97,0.04,,---,0.39,VWS V13.01,2013-11-19 02:47:00,
2013-11-18 18:48:00,49.6,48.8,29.06,ENE,62,0.0,0.0,97,0.04,,---,0.39,VWS V13.01,2013-11-19 02:48:00,
2013-11-18 18:49:00,49.6,48.8,29.06,ESE,104,2.7,2.7,97,0.04,,---,0.39,VWS V13.01,2013-11-19 02:49:00,
2013-11-18 18:51:00,49.6,48.8,29.06,ESE,104,2.7,2.7,97,0.04,,---,0.39,VWS V13.01,2013-11-19 02:51:00,
2013-11-18 18:52:00,49.6,48.8,29.06,East,83,0.0,0.0,97,0.04,,---,0.39,VWS V13.01,2013-11-19 02:52:00,
2013-11-18 18:54:00,49.6,48.8,29.06,South,181,0.0,0.0,97,0.04,,---,0.39,VWS V13.01,2013-11-19 02:54:00,
2013-11-18 18:56:00,49.6,48.8,29.06,WSW,254,6.7,6.7,97,0.04,,---,0.39,VWS V13.01,2013-11-19 02:56:00,
2013-11-18 18:57:00,49.6,48.8,29.06,South,177,0.0,6.7,97,0.04,,---,0.39,VWS V13.01,2013-11-19 02:57:00,
2013-11-18 18:59:00,49.6,48.8,29.06,WSW,238,3.1,3.1,97,0.04,,---,0.39,VWS V13.01,2013-11-19 02:59:00,
2013-11-18 19:01:00,49.6,48.8,29.06,ESE,102,0.0,0.0,97,0.04,,---,0.39,VWS V13.01,2013-11-19 03:01:00,
2013-11-18 19:02:00,49.6,48.8,29.06,ESE,102,0.0,0.0,97,0.04,,---,0.39,VWS V13.01,2013-11-19 03:02:00,
2013-11-18 19:03:00,49.6,48.8,29.06,ENE,71,3.6,3.6,97,0.04,,---,0.39,VWS V13.01,2013-11-19 03:03:00,
2013-11-18 19:04:00,49.6,48.8,29.06,ENE,71,3.6,3.6,97,0.04,,---,0.39,VWS V13.01,2013-11-19 03:04:00,
2013-11-18 19:06:00,50.0,48.9,29.06,SW,224,2.2,2.2,96,0.04,,---,0.39,VWS V13.01,2013-11-19 03:06:00,
2013-11-18 19:07:00,50.0,48.9,29.06,SW,224,2.2,2.2,96,0.04,,---,0.39,VWS V13.01,2013-11-19 03:07:00,
2013-11-18 19:08:00,50.0,48.9,29.06,SW,224,0.0,2.2,96,0.04,,---,0.39,VWS V13.01,2013-11-19 03:08:00,
2013-11-18 19:09:00,50.0,48.9,29.06,SSE,166,6.3,6.3,96,0.04,,---,0.39,VWS V13.01,2013-11-19 03:09:00,
2013-11-18 19:11:00,50.0,48.9,29.06,SSW,194,0.0,0.0,96,0.00,,---,0.39,VWS V13.01,2013-11-19 03:11:00,
2013-11-18 19:12:00,50.0,48.9,29.06,SSW,194,0.0,0.0,96,0.00,,---,0.39,VWS V13.01,2013-11-19 03:12:00,
2013-11-18 19:13:00,50.0,48.9,29.06,SE,145,0.0,0.0,96,0.00,,---,0.39,VWS V13.01,2013-11-19 03:13:00,
2013-11-18 19:14:00,50.0,48.9,29.06,SE,145,0.0,0.0,96,0.00,,---,0.39,VWS V13.01,2013-11-19 03:14:00,
2013-11-18 19:15:00,50.0,48.9,29.06,SE,133,3.6,3.6,96,0.00,,---,0.39,VWS V13.01,2013-11-19 03:15:00,
2013-11-18 19:17:00,50.2,49.1,29.06,SSE,147,5.4,5.4,96,0.00,,---,0.39,VWS V13.01,2013-11-19 03:17:00,
2013-11-18 19:18:00,50.2,49.1,29.06,SE,143,3.1,3.1,96,0.00,,---,0.39,VWS V13.01,2013-11-19 03:18:00,
2013-11-18 19:19:00,50.2,49.1,29.06,SE,143,3.1,3.1,96,0.00,,---,0.39,VWS V13.01,2013-11-19 03:19:00,
2013-11-18 19:20:00,50.2,49.1,29.06,SW,234,10.1,10.1,96,0.00,,---,0.39,VWS V13.01,2013-11-19 03:20:00,
2013-11-18 19:22:00,50.2,49.1,29.06,SSE,152,3.1,3.1,96,0.04,,---,0.43,VWS V13.01,2013-11-19 03:22:00,
2013-11-18 19:23:00,50.2,49.1,29.06,ESE,106,4.0,4.0,96,0.04,,---,0.43,VWS V13.01,2013-11-19 03:23:00,
2013-11-18 19:24:00,50.2,49.1,29.06,South,179,5.4,5.4,96,0.04,,---,0.43,VWS V13.01,2013-11-19 03:24:00,
2013-11-18 19:25:00,50.2,49.1,29.06,South,179,5.4,5.4,96,0.04,,---,0.43,VWS V13.01,2013-11-19 03:25:00,
2013-11-18 19:27:00,50.2,49.1,29.06,South,179,0.0,0.0,96,0.04,,---,0.43,VWS V13.01,2013-11-19 03:27:00,
2013-11-18 19:28:00,50.2,49.1,29.06,West,276,2.2,2.2,96,0.04,,---,0.43,VWS V13.01,2013-11-19 03:28:00,
2013-11-18 19:29:00,50.2,49.1,29.06,West,276,2.2,2.2,96,0.04,,---,0.43,VWS V13.01,2013-11-19 03:29:00,
2013-11-18 19:30:00,50.2,49.1,29.06,NNE,32,0.0,2.2,96,0.04,,---,0.43,VWS V13.01,2013-11-19 03:30:00,
2013-11-18 19:32:00,50.0,48.9,29.06,South,175,0.0,0.0,96,0.04,,---,0.43,VWS V13.01,2013-11-19 03:32:00,
2013-11-18 19:33:00,50.0,48.9,29.06,South,175,0.0,0.0,96,0.04,,---,0.43,VWS V13.01,2013-11-19 03:33:00,
2013-11-18 19:34:00,50.0,48.9,29.06,ESE,119,2.2,2.2,96,0.04,,---,0.43,VWS V13.01,2013-11-19 03:34:00,
2013-11-18 19:35:00,50.0,48.9,29.06,ESE,119,2.2,2.2,96,0.04,,---,0.43,VWS V13.01,2013-11-19 03:35:00,
2013-11-18 19:38:00,50.0,48.9,29.06,SSW,194,3.1,3.1,96,0.04,,---,0.43,VWS V13.01,2013-11-19 03:38:00,
2013-11-18 19:39:00,50.0,48.9,29.06,SE,142,6.3,6.3,96,0.04,,---,0.43,VWS V13.01,2013-11-19 03:39:00,
2013-11-18 19:41:00,50.0,48.9,29.06,SSE,152,0.0,6.3,96,0.04,,---,0.43,VWS V13.01,2013-11-19 03:41:00,
2013-11-18 19:43:00,50.0,48.9,29.06,SE,137,3.1,3.1,96,0.04,,---,0.43,VWS V13.01,2013-11-19 03:43:00,
2013-11-18 19:44:00,50.0,48.9,29.06,SE,137,3.1,3.1,96,0.04,,---,0.43,VWS V13.01,2013-11-19 03:44:00,
2013-11-18 19:46:00,50.0,48.9,29.06,NNE,19,0.0,0.0,96,0.04,,---,0.43,VWS V13.01,2013-11-19 03:46:00,
2013-11-18 19:48:00,50.2,49.1,29.03,SSE,154,5.8,7.6,96,0.04,,---,0.43,VWS V13.01,2013-11-19 03:48:00,
2013-11-18 19:49:00,50.2,49.1,29.03,SSE,154,5.8,5.8,96,0.04,,---,0.43,VWS V13.01,2013-11-19 03:49:00,
2013-11-18 19:51:00,50.2,49.1,29.03,SSE,168,3.1,4.0,96,0.04,,---,0.47,VWS V13.01,2013-11-19 03:51:00,
2013-11-18 19:53:00,50.2,49.1,29.03,SE,137,2.7,2.7,96,0.08,,---,0.47,VWS V13.01,2013-11-19 03:53:00,
2013-11-18 19:54:00,50.2,49.1,29.03,SE,137,2.7,2.7,96,0.08,,---,0.47,VWS V13.01,2013-11-19 03:54:00,
2013-11-18 19:56:00,50.2,49.1,29.03,SSW,195,0.0,0.0,96,0.08,,---,0.47,VWS V13.01,2013-11-19 03:56:00,
2013-11-18 19:58:00,50.2,49.1,29.03,SSW,199,2.7,2.7,96,0.08,,---,0.47,VWS V13.01,2013-11-19 03:58:00,
2013-11-18 19:59:00,50.2,49.1,29.03,ESE,113,3.6,3.6,96,0.08,,---,0.47,VWS V13.01,2013-11-19 03:59:00,
2013-11-18 20:00:00,50.2,49.1,29.03,ESE,113,3.6,3.6,96,0.08,,---,0.47,VWS V13.01,2013-11-19 04:00:00,
2013-11-18 20:01:00,50.2,49.1,29.03,ESE,110,0.0,2.7,96,0.08,,---,0.47,VWS V13.01,2013-11-19 04:01:00,
2013-11-18 20:03:00,50.2,49.1,29.03,South,190,4.9,4.9,96,0.08,,---,0.47,VWS V13.01,2013-11-19 04:03:00,
2013-11-18 20:04:00,50.2,49.1,29.03,South,190,4.9,4.9,96,0.08,,---,0.47,VWS V13.01,2013-11-19 04:04:00,
2013-11-18 20:05:00,50.2,49.1,29.03,South,190,4.9,4.9,96,0.08,,---,0.47,VWS V13.01,2013-11-19 04:05:00,
2013-11-18 20:06:00,50.2,49.1,29.03,SSW,207,5.4,5.4,96,0.08,,---,0.47,VWS V13.01,2013-11-19 04:06:00,
2013-11-18 20:07:00,50.2,49.1,29.03,SSW,207,5.4,5.4,96,0.08,,---,0.47,VWS V13.01,2013-11-19 04:07:00,
2013-11-18 20:09:00,50.2,49.1,29.03,SSW,203,0.0,0.0,96,0.08,,---,0.47,VWS V13.01,2013-11-19 04:09:00,
2013-11-18 20:10:00,50.2,49.1,29.03,SSW,203,0.0,0.0,96,0.08,,---,0.47,VWS V13.01,2013-11-19 04:10:00,
2013-11-18 20:12:00,50.2,49.1,29.03,ESE,102,0.0,0.0,96,0.08,,---,0.47,VWS V13.01,2013-11-19 04:12:00,
2013-11-18 20:14:00,50.2,49.1,29.03,SE,135,7.6,7.6,96,0.08,,---,0.47,VWS V13.01,2013-11-19 04:14:00,
2013-11-18 20:15:00,50.2,49.1,29.03,South,173,0.0,7.6,96,0.08,,---,0.47,VWS V13.01,2013-11-19 04:15:00,
2013-11-18 20:17:00,50.2,49.1,29.03,South,184,5.4,5.4,96,0.08,,---,0.47,VWS V13.01,2013-11-19 04:17:00,
2013-11-18 20:19:00,50.4,49.3,29.03,South,184,5.4,5.4,96,0.08,,---,0.47,VWS V13.01,2013-11-19 04:19:00,
2013-11-18 20:20:00,50.4,49.3,29.03,SE,141,4.5,4.5,96,0.08,,---,0.47,VWS V13.01,2013-11-19 04:20:00,
2013-11-18 20:21:00,50.4,49.3,29.03,SSE,163,4.9,4.9,96,0.08,,---,0.47,VWS V13.01,2013-11-19 04:21:00,
2013-11-18 20:22:00,50.4,49.3,29.03,SSE,163,4.9,4.9,96,0.08,,---,0.47,VWS V13.01,2013-11-19 04:22:00,
2013-11-18 20:25:00,50.4,49.3,29.03,SW,236,10.5,10.5,96,0.04,,---,0.47,VWS V13.01,2013-11-19 04:25:00,
2013-11-18 20:26:00,50.4,49.3,29.03,West,271,3.1,10.5,96,0.04,,---,0.47,VWS V13.01,2013-11-19 04:26:00,
2013-11-18 20:27:00,50.4,49.3,29.03,SSE,164,3.1,3.1,96,0.04,,---,0.47,VWS V13.01,2013-11-19 04:27:00,
2013-11-18 20:30:00,50.4,49.3,29.03,West,267,5.4,5.4,96,0.04,,---,0.47,VWS V13.01,2013-11-19 04:30:00,
2013-11-18 20:31:00,50.4,49.3,29.03,West,267,5.4,5.4,96,0.04,,---,0.47,VWS V13.01,2013-11-19 04:31:00,
2013-11-18 20:32:00,50.4,49.3,29.03,West,267,5.4,5.4,96,0.04,,---,0.47,VWS V13.01,2013-11-19 04:32:00,
2013-11-18 20:35:00,50.4,49.3,29.03,South,186,3.1,3.1,96,0.04,,---,0.47,VWS V13.01,2013-11-19 04:35:00,
2013-11-18 20:36:00,50.4,49.3,29.03,South,186,3.1,3.1,96,0.04,,---,0.47,VWS V13.01,2013-11-19 04:36:00,
2013-11-18 20:37:00,50.4,49.3,29.03,South,188,3.6,3.6,96,0.04,,---,0.47,VWS V13.01,2013-11-19 04:37:00,
2013-11-18 20:38:00,50.4,49.3,29.03,South,188,3.6,3.6,96,0.04,,---,0.47,VWS V13.01,2013-11-19 04:38:00,
2013-11-18 20:40:00,50.4,49.3,29.03,South,175,3.1,3.6,96,0.04,,---,0.47,VWS V13.01,2013-11-19 04:40:00,
2013-11-18 20:41:00,50.4,49.3,29.03,South,175,3.1,3.6,96,0.04,,---,0.47,VWS V13.01,2013-11-19 04:41:00,
2013-11-18 20:42:00,50.4,49.0,29.03,South,175,3.1,3.1,95,0.04,,---,0.51,VWS V13.01,2013-11-19 04:42:00,
2013-11-18 20:43:00,50.4,49.0,29.03,SSE,147,2.7,3.1,95,0.08,,---,0.51,VWS V13.01,2013-11-19 04:43:00,
2013-11-18 20:46:00,50.2,48.8,29.03,South,180,2.2,2.2,95,0.08,,---,0.51,VWS V13.01,2013-11-19 04:46:00,
2013-11-18 20:47:00,50.4,49.0,29.03,SSE,150,5.4,5.4,95,0.08,,---,0.51,VWS V13.01,2013-11-19 04:47:00,
2013-11-18 20:48:00,50.4,49.0,29.03,SSE,150,5.4,5.4,95,0.08,,---,0.51,VWS V13.01,2013-11-19 04:48:00,
2013-11-18 20:51:00,50.4,49.0,29.03,SSE,166,8.3,8.3,95,0.08,,---,0.51,VWS V13.01,2013-11-19 04:51:00,
2013-11-18 20:52:00,50.4,49.0,29.03,SW,220,0.0,0.0,95,0.04,,---,0.51,VWS V13.01,2013-11-19 04:52:00,
2013-11-18 20:53:00,50.4,49.0,29.03,SW,220,0.0,0.0,95,0.04,,---,0.51,VWS V13.01,2013-11-19 04:53:00,
2013-11-18 20:56:00,50.4,49.0,29.03,SW,223,5.8,6.3,95,0.04,,---,0.51,VWS V13.01,2013-11-19 04:56:00,
2013-11-18 20:57:00,50.4,49.0,29.03,SW,223,5.8,6.3,95,0.04,,---,0.51,VWS V13.01,2013-11-19 04:57:00,
2013-11-18 20:58:00,50.4,49.0,29.03,SSW,197,2.2,5.8,95,0.04,,---,0.51,VWS V13.01,2013-11-19 04:58:00,
2013-11-18 21:01:00,50.4,49.0,29.03,NNE,19,0.0,2.2,95,0.04,,---,0.51,VWS V13.01,2013-11-19 05:01:00,
2013-11-18 21:06:00,50.2,48.8,29.03,North,357,2.2,2.2,95,0.04,,---,0.51,VWS V13.01,2013-11-19 05:06:00,
2013-11-18 21:11:00,50.2,48.8,29.03,SW,235,0.0,0.0,95,0.04,,---,0.51,VWS V13.01,2013-11-19 05:11:00,
2013-11-18 21:16:00,50.2,48.8,29.03,SSE,151,2.7,2.7,95,0.08,,---,0.55,VWS V13.01,2013-11-19 05:16:00,
2013-11-18 21:17:00,50.2,48.8,29.03,SSE,151,2.7,2.7,95,0.08,,---,0.55,VWS V13.01,2013-11-19 05:17:00,
2013-11-18 21:21:00,50.2,48.8,29.03,SW,218,0.0,0.0,95,0.08,,---,0.55,VWS V13.01,2013-11-19 05:21:00,
2013-11-18 21:22:00,50.2,48.8,29.03,WSW,242,2.7,2.7,95,0.08,,---,0.55,VWS V13.01,2013-11-19 05:22:00,
2013-11-18 21:26:00,50.2,48.8,29.03,SSE,160,3.1,3.1,95,0.08,,---,0.55,VWS V13.01,2013-11-19 05:26:00,
2013-11-18 21:27:00,50.2,48.8,29.03,SSE,160,3.1,3.1,95,0.08,,---,0.55,VWS V13.01,2013-11-19 05:27:00,
2013-11-18 21:31:00,50.4,49.0,29.03,SW,222,2.7,4.9,95,0.08,,---,0.55,VWS V13.01,2013-11-19 05:31:00,
2013-11-18 21:32:00,50.4,49.0,29.03,WSW,257,0.0,0.0,95,0.08,,---,0.55,VWS V13.01,2013-11-19 05:32:00,
2013-11-18 21:33:00,50.4,49.0,29.03,WSW,257,2.2,2.2,95,0.08,,---,0.55,VWS V13.01,2013-11-19 05:33:00,
2013-11-18 21:36:00,50.2,48.8,29.03,SE,134,2.2,2.2,95,0.08,,---,0.55,VWS V13.01,2013-11-19 05:36:00,
2013-11-18 21:37:00,50.2,48.8,29.03,ESE,104,0.0,2.2,95,0.08,,---,0.55,VWS V13.01,2013-11-19 05:37:00,
2013-11-18 21:38:00,50.2,48.8,29.03,ESE,104,0.0,0.0,95,0.08,,---,0.55,VWS V13.01,2013-11-19 05:38:00,
2013-11-18 21:41:00,50.2,48.8,29.03,SE,141,0.0,0.0,95,0.08,,---,0.55,VWS V13.01,2013-11-19 05:41:00,
2013-11-18 21:42:00,50.2,48.8,29.03,SE,141,0.0,0.0,95,0.08,,---,0.55,VWS V13.01,2013-11-19 05:42:00,
2013-11-18 21:43:00,50.2,48.8,29.03,SE,141,0.0,0.0,95,0.08,,---,0.55,VWS V13.01,2013-11-19 05:43:00,
2013-11-18 21:46:00,50.2,48.8,29.03,SE,138,0.0,3.1,95,0.04,,---,0.55,VWS V13.01,2013-11-19 05:46:00,
2013-11-18 21:47:00,50.2,48.8,29.03,SE,138,0.0,3.1,95,0.04,,---,0.55,VWS V13.01,2013-11-19 05:47:00,
2013-11-18 21:48:00,50.2,48.8,29.03,NNE,16,3.1,3.1,95,0.04,,---,0.55,VWS V13.01,2013-11-19 05:48:00,
2013-11-18 21:49:00,50.2,48.8,29.03,NNE,16,3.1,3.1,95,0.04,,---,0.55,VWS V13.01,2013-11-19 05:49:00,
2013-11-18 21:51:00,50.2,49.1,29.03,WSW,256,6.3,6.3,96,0.04,,---,0.55,VWS V13.01,2013-11-19 05:51:00,
2013-11-18 21:52:00,50.2,49.1,29.03,WSW,256,6.3,6.3,96,0.04,,---,0.55,VWS V13.01,2013-11-19 05:52:00,
2013-11-18 21:53:00,50.2,49.1,29.03,ENE,59,3.6,3.6,96,0.04,,---,0.55,VWS V13.01,2013-11-19 05:53:00,
2013-11-18 21:54:00,50.4,49.3,29.03,WNW,292,2.7,2.7,96,0.04,,---,0.55,VWS V13.01,2013-11-19 05:54:00,
2013-11-18 21:56:00,50.5,49.5,29.03,WNW,287,5.8,5.8,96,0.04,,---,0.55,VWS V13.01,2013-11-19 05:56:00,
2013-11-18 21:57:00,50.5,49.5,29.03,WSW,243,8.1,8.1,96,0.04,,---,0.55,VWS V13.01,2013-11-19 05:57:00,
2013-11-18 21:58:00,50.5,49.5,29.03,WSW,243,8.1,8.1,96,0.04,,---,0.55,VWS V13.01,2013-11-19 05:58:00,
2013-11-18 21:59:00,50.5,49.5,29.03,SSW,208,3.6,8.1,96,0.04,,---,0.55,VWS V13.01,2013-11-19 05:59:00,
2013-11-18 22:01:00,50.7,49.3,29.03,ENE,72,3.1,3.1,95,0.04,,---,0.55,VWS V13.01,2013-11-19 06:01:00,
2013-11-18 22:02:00,50.7,49.3,29.03,ENE,72,3.1,3.1,95,0.04,,---,0.55,VWS V13.01,2013-11-19 06:02:00,
2013-11-18 22:03:00,50.7,49.3,29.03,West,278,3.6,3.6,95,0.04,,---,0.55,VWS V13.01,2013-11-19 06:03:00,
2013-11-18 22:04:00,50.5,49.2,29.03,SSE,157,0.0,3.6,95,0.04,,---,0.55,VWS V13.01,2013-11-19 06:04:00,
2013-11-18 22:06:00,50.5,49.2,29.03,South,184,5.4,5.4,95,0.04,,---,0.55,VWS V13.01,2013-11-19 06:06:00,
2013-11-18 22:07:00,50.5,49.2,29.03,SW,234,2.7,5.4,95,0.04,,---,0.55,VWS V13.01,2013-11-19 06:07:00,
2013-11-18 22:08:00,50.5,49.2,29.03,SW,234,2.7,5.4,95,0.04,,---,0.55,VWS V13.01,2013-11-19 06:08:00,
2013-11-18 22:09:00,50.7,49.3,29.03,SW,234,2.7,2.7,95,0.04,,---,0.55,VWS V13.01,2013-11-19 06:09:00,
2013-11-18 22:11:00,50.9,49.5,29.03,SW,229,7.2,8.1,95,0.04,,---,0.55,VWS V13.01,2013-11-19 06:11:00,
2013-11-18 22:12:00,51.1,49.7,29.03,South,184,3.6,7.2,95,0.04,,---,0.55,VWS V13.01,2013-11-19 06:12:00,
2013-11-18 22:13:00,51.1,49.7,29.03,South,184,3.6,3.6,95,0.04,,---,0.55,VWS V13.01,2013-11-19 06:13:00,
2013-11-18 22:14:00,51.1,49.7,29.03,SE,143,4.0,6.3,95,0.04,,---,0.55,VWS V13.01,2013-11-19 06:14:00,
2013-11-18 22:16:00,51.1,49.7,29.03,East,99,6.3,6.3,95,0.04,,---,0.55,VWS V13.01,2013-11-19 06:16:00,
2013-11-18 22:18:00,51.4,50.1,29.03,East,99,6.3,6.3,95,0.00,,---,0.55,VWS V13.01,2013-11-19 06:18:00,
2013-11-18 22:19:00,51.4,50.1,29.03,SSE,162,5.8,5.8,95,0.00,,---,0.55,VWS V13.01,2013-11-19 06:19:00,
2013-11-18 22:20:00,51.4,50.1,29.03,SSE,162,5.8,5.8,95,0.00,,---,0.55,VWS V13.01,2013-11-19 06:20:00,
2013-11-18 22:21:00,51.6,50.2,29.03,SW,228,4.9,9.2,95,0.00,,---,0.55,VWS V13.01,2013-11-19 06:21:00,
2013-11-18 22:23:00,51.6,50.2,29.03,SW,228,4.9,4.9,95,0.00,,---,0.55,VWS V13.01,2013-11-19 06:23:00,
2013-11-18 22:25:00,51.6,50.0,29.03,WNW,301,8.7,8.7,94,0.00,,---,0.55,VWS V13.01,2013-11-19 06:25:00,
2013-11-18 22:26:00,51.6,50.0,29.03,South,177,4.0,15.0,94,0.00,,---,0.55,VWS V13.01,2013-11-19 06:26:00,
2013-11-18 22:28:00,51.6,50.0,29.03,South,177,4.0,4.0,94,0.00,,---,0.55,VWS V13.01,2013-11-19 06:28:00,
2013-11-18 22:30:00,51.6,50.0,29.03,SW,235,11.4,11.4,94,0.00,,---,0.55,VWS V13.01,2013-11-19 06:30:00,
2013-11-18 22:32:00,52.0,50.3,29.03,SW,235,11.4,11.4,94,0.00,,---,0.55,VWS V13.01,2013-11-19 06:32:00,
2013-11-18 22:33:00,52.0,50.3,29.03,WSW,254,2.7,2.7,94,0.00,,---,0.55,VWS V13.01,2013-11-19 06:33:00,
2013-11-18 22:34:00,52.0,50.3,29.03,SE,146,8.7,8.7,94,0.00,,---,0.55,VWS V13.01,2013-11-19 06:34:00,
2013-11-18 22:35:00,52.0,50.0,29.03,ESE,109,4.0,12.3,93,0.00,,---,0.55,VWS V13.01,2013-11-19 06:35:00,
2013-11-18 22:37:00,52.0,50.0,29.03,SW,225,8.3,8.3,93,0.00,,---,0.55,VWS V13.01,2013-11-19 06:37:00,
2013-11-18 22:38:00,52.0,50.0,29.03,SE,136,6.3,8.3,93,0.00,,---,0.55,VWS V13.01,2013-11-19 06:38:00,
2013-11-18 22:39:00,52.0,50.0,29.03,SE,136,6.3,8.3,93,0.00,,---,0.55,VWS V13.01,2013-11-19 06:39:00,
2013-11-18 22:40:00,52.0,50.0,29.03,SW,225,12.8,12.8,93,0.00,,---,0.55,VWS V13.01,2013-11-19 06:40:00,
2013-11-18 22:41:00,52.0,50.0,29.03,SW,225,12.8,12.8,93,0.00,,---,0.55,VWS V13.01,2013-11-19 06:41:00,
2013-11-18 22:42:00,52.0,50.0,29.03,SE,128,4.0,12.8,93,0.00,,---,0.55,VWS V13.01,2013-11-19 06:42:00,
2013-11-18 22:43:00,52.0,50.0,29.03,SE,128,4.0,4.0,93,0.00,,---,0.55,VWS V13.01,2013-11-19 06:43:00,
2013-11-18 22:44:00,52.0,50.0,29.03,SE,128,4.0,4.0,93,0.00,,---,0.55,VWS V13.01,2013-11-19 06:44:00,
2013-11-18 22:45:00,52.0,50.0,29.03,SE,128,4.0,4.0,93,0.00,,---,0.55,VWS V13.01,2013-11-19 06:45:00,
2013-11-18 22:46:00,52.3,50.4,29.03,SW,214,5.8,5.8,93,0.00,,---,0.55,VWS V13.01,2013-11-19 06:46:00,
2013-11-18 22:47:00,52.2,50.2,29.03,SW,225,4.0,4.0,93,0.00,,---,0.55,VWS V13.01,2013-11-19 06:47:00,
2013-11-18 22:48:00,52.2,50.2,29.03,SW,225,4.0,4.0,93,0.00,,---,0.55,VWS V13.01,2013-11-19 06:48:00,
2013-11-18 22:49:00,52.2,50.2,29.03,WSW,247,8.3,8.3,93,0.00,,---,0.55,VWS V13.01,2013-11-19 06:49:00,
2013-11-18 22:50:00,52.2,50.2,29.03,WSW,247,8.3,8.3,93,0.00,,---,0.55,VWS V13.01,2013-11-19 06:50:00,
2013-11-18 22:51:00,52.2,50.2,29.03,South,184,4.0,8.3,93,0.00,,---,0.55,VWS V13.01,2013-11-19 06:51:00,
2013-11-18 22:52:00,52.3,50.1,29.03,NW,304,3.1,3.1,92,0.00,,---,0.55,VWS V13.01,2013-11-19 06:52:00,
2013-11-18 22:54:00,52.3,50.1,29.03,WSW,251,6.3,6.3,92,0.00,,---,0.55,VWS V13.01,2013-11-19 06:54:00,
2013-11-18 22:55:00,52.5,50.3,29.03,WSW,251,6.3,6.3,92,0.00,,---,0.55,VWS V13.01,2013-11-19 06:55:00,
2013-11-18 22:56:00,52.7,50.5,29.03,SSE,162,4.0,4.0,92,0.00,,---,0.55,VWS V13.01,2013-11-19 06:56:00,
2013-11-18 22:58:00,52.5,50.3,29.03,WSW,253,2.7,2.7,92,0.00,,---,0.55,VWS V13.01,2013-11-19 06:58:00,
2013-11-18 22:59:00,52.5,50.3,29.03,WSW,241,5.4,5.4,92,0.00,,---,0.55,VWS V13.01,2013-11-19 06:59:00,
2013-11-18 23:00:00,52.5,50.3,29.03,WSW,241,5.4,5.4,92,0.00,,---,0.55,VWS V13.01,2013-11-19 07:00:00,
2013-11-18 23:01:00,52.5,50.3,29.03,SSW,205,6.3,6.3,92,0.00,,---,0.55,VWS V13.01,2013-11-19 07:01:00,
2013-11-18 23:02:00,52.5,50.3,29.03,SSW,205,6.3,6.3,92,0.00,,---,0.55,VWS V13.01,2013-11-19 07:02:00,
2013-11-18 23:03:00,52.5,50.3,29.03,North,353,6.3,6.3,92,0.00,,---,0.55,VWS V13.01,2013-11-19 07:03:00,
2013-11-18 23:04:00,52.7,50.5,29.03,North,353,6.3,6.3,92,0.00,,---,0.55,VWS V13.01,2013-11-19 07:04:00,
2013-11-18 23:05:00,52.7,50.5,29.03,ESE,108,7.6,7.6,92,0.00,,---,0.55,VWS V13.01,2013-11-19 07:05:00,
2013-11-18 23:06:00,52.7,50.2,29.03,WSW,250,3.1,7.6,91,0.00,,---,0.55,VWS V13.01,2013-11-19 07:06:00,
2013-11-18 23:07:00,52.7,50.2,29.03,WSW,250,3.1,3.1,91,0.00,,---,0.55,VWS V13.01,2013-11-19 07:07:00,
2013-11-18 23:08:00,52.7,50.2,29.03,NW,306,4.0,4.0,91,0.00,,---,0.55,VWS V13.01,2013-11-19 07:08:00,
2013-11-18 23:09:00,52.7,50.2,29.03,SSE,168,10.5,10.5,91,0.00,,---,0.55,VWS V13.01,2013-11-19 07:09:00,
2013-11-18 23:10:00,52.7,50.2,29.03,West,260,6.7,11.0,91,0.00,,---,0.55,VWS V13.01,2013-11-19 07:10:00,
2013-11-18 23:12:00,52.7,50.2,29.03,NW,320,3.1,6.3,91,0.00,,---,0.55,VWS V13.01,2013-11-19 07:12:00,
2013-11-18 23:13:00,53.1,50.5,29.03,NW,320,3.1,3.1,91,0.00,,---,0.55,VWS V13.01,2013-11-19 07:13:00,
2013-11-18 23:14:00,53.1,50.5,29.03,East,90,4.9,4.9,91,0.00,,---,0.55,VWS V13.01,2013-11-19 07:14:00,
2013-11-18 23:15:00,53.1,50.5,29.03,East,90,4.9,4.9,91,0.00,,---,0.55,VWS V13.01,2013-11-19 07:15:00,
2013-11-18 23:17:00,53.1,50.5,29.03,SSE,166,3.6,4.9,91,0.00,,---,0.55,VWS V13.01,2013-11-19 07:17:00,
2013-11-18 23:18:00,52.9,50.3,29.03,SSW,200,8.7,8.7,91,0.00,,---,0.55,VWS V13.01,2013-11-19 07:18:00,
2013-11-18 23:19:00,52.9,50.3,29.03,SSW,200,8.7,8.7,91,0.00,,---,0.55,VWS V13.01,2013-11-19 07:19:00,
2013-11-18 23:20:00,52.9,50.3,29.03,SW,232,4.9,4.9,91,0.00,,---,0.55,VWS V13.01,2013-11-19 07:20:00,
2013-11-18 23:22:00,52.7,50.2,29.03,West,262,3.6,3.6,91,0.00,,---,0.55,VWS V13.01,2013-11-19 07:22:00,
2013-11-18 23:23:00,52.7,50.2,29.03,West,262,3.6,3.6,91,0.00,,---,0.55,VWS V13.01,2013-11-19 07:23:00,
2013-11-18 23:24:00,52.7,50.2,29.03,SE,136,4.0,4.0,91,0.00,,---,0.55,VWS V13.01,2013-11-19 07:24:00,
2013-11-18 23:25:00,52.5,50.0,29.03,SE,136,4.0,4.0,91,0.00,,---,0.55,VWS V13.01,2013-11-19 07:25:00,
2013-11-18 23:26:00,52.5,50.0,29.03,SE,136,4.0,4.0,91,0.00,,---,0.55,VWS V13.01,2013-11-19 07:26:00,
2013-11-18 23:27:00,52.5,50.3,29.03,South,169,4.0,4.9,92,0.00,,---,0.59,VWS V13.01,2013-11-19 07:27:00,
2013-11-18 23:28:00,52.5,50.3,29.03,South,169,4.0,4.0,92,0.04,,---,0.59,VWS V13.01,2013-11-19 07:28:00,
2013-11-18 23:29:00,52.5,50.3,29.03,SE,146,3.6,4.0,92,0.04,,---,0.59,VWS V13.01,2013-11-19 07:29:00,
2013-11-18 23:30:00,52.5,50.3,29.03,SE,146,3.6,3.6,92,0.04,,---,0.59,VWS V13.01,2013-11-19 07:30:00,
2013-11-18 23:31:00,52.3,50.1,29.03,SE,146,3.6,3.6,92,0.04,,---,0.59,VWS V13.01,2013-11-19 07:31:00,
2013-11-18 23:32:00,52.3,50.1,29.03,West,277,2.2,2.2,92,0.04,,---,0.59,VWS V13.01,2013-11-19 07:32:00,
2013-11-18 23:33:00,52.3,50.1,29.03,SSW,203,3.1,3.1,92,0.04,,---,0.59,VWS V13.01,2013-11-19 07:33:00,
2013-11-18 23:35:00,52.2,49.9,29.03,SSW,203,3.1,3.1,92,0.04,,---,0.59,VWS V13.01,2013-11-19 07:35:00,
2013-11-18 23:36:00,52.2,49.9,29.03,SSW,202,2.7,2.7,92,0.04,,---,0.59,VWS V13.01,2013-11-19 07:36:00,
2013-11-18 23:38:00,52.2,49.9,29.03,SSE,147,6.3,6.3,92,0.04,,---,0.59,VWS V13.01,2013-11-19 07:38:00,
2013-11-18 23:39:00,52.2,49.9,29.03,SW,232,11.0,11.0,92,0.04,,---,0.59,VWS V13.01,2013-11-19 07:39:00,
2013-11-18 23:40:00,52.3,50.4,29.03,SW,232,11.0,11.0,93,0.04,,---,0.59,VWS V13.01,2013-11-19 07:40:00,
2013-11-18 23:41:00,52.3,50.4,29.03,WSW,240,3.1,3.1,93,0.04,,---,0.59,VWS V13.01,2013-11-19 07:41:00,
2013-11-18 23:43:00,52.3,50.4,29.03,West,266,4.0,8.3,93,0.04,,---,0.59,VWS V13.01,2013-11-19 07:43:00,
2013-11-18 23:44:00,52.5,50.6,29.03,West,266,4.0,4.0,93,0.04,,---,0.59,VWS V13.01,2013-11-19 07:44:00,
2013-11-18 23:45:00,52.5,50.6,29.03,West,263,5.4,5.4,93,0.04,,---,0.59,VWS V13.01,2013-11-19 07:45:00,
2013-11-18 23:46:00,52.5,50.6,29.03,SSW,199,4.9,4.9,93,0.04,,---,0.59,VWS V13.01,2013-11-19 07:46:00,
2013-11-18 23:48:00,52.5,50.6,29.03,SSW,199,4.9,4.9,93,0.04,,---,0.59,VWS V13.01,2013-11-19 07:48:00,
2013-11-18 23:49:00,52.5,50.6,29.03,SSE,164,5.8,5.8,93,0.04,,---,0.59,VWS V13.01,2013-11-19 07:49:00,
2013-11-18 23:50:00,52.5,50.6,29.03,SE,125,4.9,4.9,93,0.04,,---,0.59,VWS V13.01,2013-11-19 07:50:00,
2013-11-18 23:52:00,52.5,50.6,29.03,WNW,293,3.6,3.6,93,0.04,,---,0.59,VWS V13.01,2013-11-19 07:52:00,
2013-11-18 23:53:00,52.5,50.6,29.03,WNW,293,3.6,3.6,93,0.04,,---,0.59,VWS V13.01,2013-11-19 07:53:00,
2013-11-18 23:54:00,52.5,50.6,29.03,SE,139,3.1,3.1,93,0.04,,---,0.59,VWS V13.01,2013-11-19 07:54:00,
2013-11-18 23:55:00,52.5,50.6,29.03,SSW,192,4.0,4.0,93,0.04,,---,0.59,VWS V13.01,2013-11-19 07:55:00,
2013-11-18 23:57:00,52.3,50.4,29.03,SSW,212,6.3,6.3,93,0.04,,---,0.59,VWS V13.01,2013-11-19 07:57:00,
2013-11-18 23:58:00,52.3,50.4,29.03,SSW,198,8.1,8.1,93,0.04,,---,0.59,VWS V13.01,2013-11-19 07:58:00,
2013-11-18 23:59:00,52.3,50.4,29.03,SSW,198,8.1,8.1,93,0.04,,---,0.59,VWS V13.01,2013-11-19 07:59:00,